Time,TemperatureF,DewpointF,PressureIn,WindDirection,WindDirectionDegrees,WindSpeedMPH,WindSpeedGustMPH,Humidity,HourlyPrecipIn,Conditions,Clouds,dailyrainin,SoftwareType,DateUTC
2013-01-18 00:00:00,30.6,28.0,29.73,SSE,162,1.0,2.0,90,0.00,-SN,-SN,0.00,WeatherDisplay:10.37,2013-01-18 00:00:00,
2013-01-18 00:01:00,35.6,29.7,29.88,SSW,202,0.7,3.5,79,0.00,RA,,0.00,WeatherDisplay:10.37,2013-01-18 00:01:00,
2013-01-18 00:05:00,30.4,27.8,29.73,ENE,61,1.0,3.0,90,0.00,-SN,-SN,0.00,WeatherDisplay:10.37,2013-01-18 00:05:00,
2013-01-18 00:06:00,35.6,30.0,29.88,SE,135,1.6,4.5,80,0.00,RA,,0.00,WeatherDisplay:10.37,2013-01-18 00:06:00,
2013-01-18 00:10:00,30.2,27.6,29.73,NE,48,2.0,4.0,90,0.00,-SN,-SN,0.00,WeatherDisplay:10.37,2013-01-18 00:10:00,
2013-01-18 00:11:00,35.4,29.9,29.88,WSW,248,0.7,4.6,80,0.00,CLR,,0.00,WeatherDisplay:10.37,2013-01-18 00:11:00,
2013-01-18 00:15:00,30.2,27.3,29.73,SE,146,1.0,4.0,89,0.00,-SN,-SN,0.00,WeatherDisplay:10.37,2013-01-18 00:15:00,
2013-01-18 00:16:00,35.6,30.0,29.88,South,180,0.7,2.3,80,0.00,CLR,,0.00,WeatherDisplay:10.37,2013-01-18 00:16:00,
2013-01-18 00:20:00,30.0,27.2,29.73,SSE,164,1.0,3.0,89,0.00,-SN,-SN,0.00,WeatherDisplay:10.37,2013-01-18 00:20:00,
2013-01-18 00:21:00,35.4,29.9,29.88,South,180,0.0,5.8,80,0.00,CLR,,0.00,WeatherDisplay:10.37,2013-01-18 00:21:00,
2013-01-18 00:25:00,30.0,27.2,29.72,SE,141,0.0,3.0,89,0.00,-SN,-SN,0.00,WeatherDisplay:10.37,2013-01-18 00:25:00,
2013-01-18 00:26:00,35.4,29.9,29.88,South,180,0.7,4.6,80,0.00,CLR,,0.00,WeatherDisplay:10.37,2013-01-18 00:26:00,
2013-01-18 00:30:00,29.8,27.3,29.72,South,182,1.0,4.0,90,0.00,-SN,-SN,0.00,WeatherDisplay:10.37,2013-01-18 00:30:00,
2013-01-18 00:31:00,35.4,29.9,29.88,East,90,0.7,3.5,80,0.00,CLR,,0.00,WeatherDisplay:10.37,2013-01-18 00:31:00,
2013-01-18 00:35:00,29.8,27.3,29.72,SW,226,1.0,6.0,90,0.00,-SN,-SN,0.00,WeatherDisplay:10.37,2013-01-18 00:35:00,
2013-01-18 00:36:00,35.2,30.0,29.87,South,180,0.0,3.5,81,0.00,CLR,,0.00,WeatherDisplay:10.37,2013-01-18 00:36:00,
2013-01-18 00:40:00,29.7,27.1,29.72,SW,222,2.0,6.0,90,0.00,-SN,-SN,0.00,WeatherDisplay:10.37,2013-01-18 00:40:00,
2013-01-18 00:41:00,35.1,29.8,29.87,WSW,248,1.6,3.1,81,0.00,CLR,,0.00,WeatherDisplay:10.37,2013-01-18 00:41:00,
2013-01-18 00:45:00,29.5,26.9,29.71,SSW,201,1.0,4.0,90,0.00,-SN,-SN,0.00,WeatherDisplay:10.37,2013-01-18 00:45:00,
2013-01-18 00:46:00,35.1,29.8,29.87,South,180,0.0,5.8,81,0.00,CLR,,0.00,WeatherDisplay:10.37,2013-01-18 00:46:00,
2013-01-18 00:50:00,29.5,26.9,29.72,SSE,163,1.0,4.0,90,0.00,-SN,-SN,0.00,WeatherDisplay:10.37,2013-01-18 00:50:00,
2013-01-18 00:51:00,35.1,29.8,29.86,South,180,0.7,5.8,81,0.00,CLR,,0.00,WeatherDisplay:10.37,2013-01-18 00:51:00,
2013-01-18 00:55:00,29.5,27.2,29.72,South,189,1.0,4.0,91,0.00,-SN,-SN,0.00,WeatherDisplay:10.37,2013-01-18 00:55:00,
2013-01-18 00:56:00,35.1,29.8,29.86,WSW,248,1.6,3.8,81,0.00,CLR,,0.00,WeatherDisplay:10.37,2013-01-18 00:56:00,
2013-01-18 01:00:00,29.3,27.0,29.72,SSW,200,1.0,4.0,91,0.00,-SN,-SN,0.00,WeatherDisplay:10.37,2013-01-18 01:00:00,
2013-01-18 01:01:00,34.9,29.6,29.86,NW,315,0.7,3.1,81,0.00,CLR,,0.00,WeatherDisplay:10.37,2013-01-18 01:01:00,
2013-01-18 01:05:00,29.5,27.2,29.72,SSW,203,1.0,2.0,91,0.00,-SN,-SN,0.00,WeatherDisplay:10.37,2013-01-18 01:05:00,
2013-01-18 01:06:00,34.9,29.6,29.86,SE,135,1.6,2.3,81,0.00,CLR,,0.00,WeatherDisplay:10.37,2013-01-18 01:06:00,
2013-01-18 01:10:00,29.5,27.4,29.72,SSW,195,2.0,4.0,92,0.00,-SN,-SN,0.00,WeatherDisplay:10.37,2013-01-18 01:10:00,
2013-01-18 01:11:00,34.9,29.6,29.86,NW,315,0.0,3.5,81,0.00,CLR,,0.00,WeatherDisplay:10.37,2013-01-18 01:11:00,
2013-01-18 01:15:00,29.5,27.4,29.72,South,178,1.0,4.0,92,0.00,-SN,-SN,0.00,WeatherDisplay:10.37,2013-01-18 01:15:00,
2013-01-18 01:16:00,34.9,29.9,29.85,WSW,248,0.7,3.5,82,0.00,CLR,,0.00,WeatherDisplay:10.37,2013-01-18 01:16:00,
2013-01-18 01:20:00,29.5,27.4,29.72,SSE,163,1.0,3.0,92,0.00,-SN,-SN,0.00,WeatherDisplay:10.37,2013-01-18 01:20:00,
2013-01-18 01:21:00,34.9,29.9,29.85,South,180,0.0,1.6,82,0.00,CLR,,0.00,WeatherDisplay:10.37,2013-01-18 01:21:00,
2013-01-18 01:25:00,29.3,27.3,29.71,SSW,192,1.0,3.0,92,0.00,-SN,-SN,0.00,WeatherDisplay:10.37,2013-01-18 01:25:00,
2013-01-18 01:26:00,34.7,29.8,29.85,SE,135,0.0,3.5,82,0.00,CLR,,0.00,WeatherDisplay:10.37,2013-01-18 01:26:00,
2013-01-18 01:30:00,29.3,27.3,29.71,SSW,197,0.0,2.0,92,0.00,-SN,-SN,0.00,WeatherDisplay:10.37,2013-01-18 01:30:00,
2013-01-18 01:32:00,34.7,29.8,29.85,WSW,248,0.0,2.3,82,0.00,CLR,,0.00,WeatherDisplay:10.37,2013-01-18 01:32:00,
2013-01-18 01:35:00,29.3,27.5,29.71,SE,126,1.0,4.0,93,0.00,-SN,-SN,0.00,WeatherDisplay:10.37,2013-01-18 01:35:00,
2013-01-18 01:37:00,34.5,29.6,29.85,West,270,0.0,2.3,82,0.00,CLR,,0.00,WeatherDisplay:10.37,2013-01-18 01:37:00,
2013-01-18 01:40:00,29.3,27.3,29.70,SSE,152,1.0,4.0,92,0.00,-SN,-SN,0.00,WeatherDisplay:10.37,2013-01-18 01:40:00,
2013-01-18 01:42:00,34.5,29.6,29.85,East,90,0.7,3.8,82,0.00,CLR,,0.00,WeatherDisplay:10.37,2013-01-18 01:42:00,
2013-01-18 01:45:00,29.3,27.5,29.70,SW,222,1.0,2.0,93,0.00,-SN,-SN,0.00,WeatherDisplay:10.37,2013-01-18 01:45:00,
2013-01-18 01:47:00,34.5,29.6,29.84,South,180,0.0,3.5,82,0.00,CLR,,0.00,WeatherDisplay:10.37,2013-01-18 01:47:00,
2013-01-18 01:50:00,29.1,27.3,29.70,NNW,340,1.0,4.0,93,0.00,-SN,-SN,0.00,WeatherDisplay:10.37,2013-01-18 01:50:00,
2013-01-18 01:52:00,34.5,29.9,29.84,South,180,0.7,3.5,83,0.00,CLR,,0.00,WeatherDisplay:10.37,2013-01-18 01:52:00,
2013-01-18 01:55:00,28.9,27.4,29.70,NNW,333,0.0,4.0,94,0.00,-SN,-SN,0.00,WeatherDisplay:10.37,2013-01-18 01:55:00,
2013-01-18 01:57:00,34.3,29.7,29.84,East,90,1.6,3.5,83,0.00,CLR,,0.00,WeatherDisplay:10.37,2013-01-18 01:57:00,
2013-01-18 02:00:00,28.9,27.7,29.69,SW,225,3.0,8.0,95,0.00,-SN,-SN,0.00,WeatherDisplay:10.37,2013-01-18 02:00:00,
2013-01-18 02:02:00,34.3,29.7,29.84,SE,135,0.7,2.3,83,0.00,CLR,,0.00,WeatherDisplay:10.37,2013-01-18 02:02:00,
2013-01-18 02:05:00,28.8,27.5,29.70,ESE,107,1.0,8.0,95,0.00,-SN,-SN,0.00,WeatherDisplay:10.37,2013-01-18 02:05:00,
2013-01-18 02:07:00,34.3,29.7,29.84,South,180,0.7,4.6,83,0.00,CLR,,0.00,WeatherDisplay:10.37,2013-01-18 02:07:00,
2013-01-18 02:10:00,28.6,27.6,29.69,East,98,1.0,4.0,96,0.00,-SN,-SN,0.00,WeatherDisplay:10.37,2013-01-18 02:10:00,
2013-01-18 02:12:00,34.3,29.7,29.84,West,270,1.6,5.8,83,0.00,CLR,,0.00,WeatherDisplay:10.37,2013-01-18 02:12:00,
2013-01-18 02:15:00,28.6,27.8,29.69,ESE,103,1.0,4.0,97,0.00,-SN,-SN,0.00,WeatherDisplay:10.37,2013-01-18 02:15:00,
2013-01-18 02:17:00,34.3,30.0,29.84,SSW,202,0.7,4.6,84,0.00,CLR,,0.00,WeatherDisplay:10.37,2013-01-18 02:17:00,
2013-01-18 02:20:00,28.6,27.8,29.69,East,101,3.0,5.0,97,0.00,-SN,-SN,0.00,WeatherDisplay:10.37,2013-01-18 02:20:00,
2013-01-18 02:22:00,34.3,30.0,29.84,SE,135,1.6,2.2,84,0.00,CLR,,0.00,WeatherDisplay:10.37,2013-01-18 02:22:00,
2013-01-18 02:25:00,28.8,28.0,29.69,East,95,1.0,5.0,97,0.00,-SN,-SN,0.00,WeatherDisplay:10.37,2013-01-18 02:25:00,
2013-01-18 02:27:00,34.3,30.0,29.84,South,180,1.6,3.5,84,0.00,CLR,,0.00,WeatherDisplay:10.37,2013-01-18 02:27:00,
2013-01-18 02:30:00,28.8,28.0,29.69,East,80,0.0,2.0,97,0.00,-SN,-SN,0.00,WeatherDisplay:10.37,2013-01-18 02:30:00,
2013-01-18 02:32:00,34.3,30.0,29.84,SE,135,0.0,2.2,84,0.00,CLR,,0.00,WeatherDisplay:10.37,2013-01-18 02:32:00,
2013-01-18 02:35:00,28.9,28.4,29.68,NW,304,1.0,4.0,98,0.00,-SN,-SN,0.00,WeatherDisplay:10.37,2013-01-18 02:35:00,
2013-01-18 02:37:00,34.3,30.0,29.84,WSW,248,0.7,5.8,84,0.00,CLR,,0.00,WeatherDisplay:10.37,2013-01-18 02:37:00,
2013-01-18 02:40:00,28.9,28.4,29.68,West,274,0.0,4.0,98,0.00,-SN,-SN,0.00,WeatherDisplay:10.37,2013-01-18 02:40:00,
2013-01-18 02:42:00,34.3,30.0,29.83,SE,135,0.0,2.3,84,0.00,CLR,,0.00,WeatherDisplay:10.37,2013-01-18 02:42:00,
2013-01-18 02:45:00,28.8,28.3,29.67,SSE,155,1.0,2.0,98,0.00,-SN,-SN,0.00,WeatherDisplay:10.37,2013-01-18 02:45:00,
2013-01-18 02:47:00,34.2,30.1,29.83,South,180,1.6,3.1,85,0.00,CLR,,0.00,WeatherDisplay:10.37,2013-01-18 02:47:00,
2013-01-18 02:50:00,28.8,28.3,29.67,South,187,0.0,2.0,98,0.00,-SN,-SN,0.00,WeatherDisplay:10.37,2013-01-18 02:50:00,
2013-01-18 02:52:00,34.2,30.1,29.83,NW,315,0.7,3.8,85,0.00,CLR,,0.00,WeatherDisplay:10.37,2013-01-18 02:52:00,
2013-01-18 02:55:00,28.8,28.3,29.67,SW,222,1.0,2.0,98,0.00,-SN,-SN,0.00,WeatherDisplay:10.37,2013-01-18 02:55:00,
2013-01-18 02:57:00,34.0,29.9,29.83,South,180,0.7,3.5,85,0.00,CLR,,0.00,WeatherDisplay:10.37,2013-01-18 02:57:00,
2013-01-18 03:00:00,28.6,28.1,29.67,SSW,213,1.0,4.0,98,0.00,-SN,-SN,0.00,WeatherDisplay:10.37,2013-01-18 03:00:00,
2013-01-18 03:02:00,34.0,29.9,29.83,South,180,0.7,4.5,85,0.00,CLR,,0.00,WeatherDisplay:10.37,2013-01-18 03:02:00,
2013-01-18 03:05:00,28.6,28.3,29.67,SW,225,1.0,4.0,99,0.00,-SN,-SN,0.00,WeatherDisplay:10.37,2013-01-18 03:05:00,
2013-01-18 03:07:00,34.0,30.2,29.83,WSW,248,0.0,4.6,86,0.00,CLR,,0.00,WeatherDisplay:10.37,2013-01-18 03:07:00,
2013-01-18 03:10:00,28.6,28.3,29.66,SSE,158,1.0,3.0,99,0.00,-SN,-SN,0.00,WeatherDisplay:10.37,2013-01-18 03:10:00,
2013-01-18 03:12:00,33.8,30.1,29.83,WSW,248,3.1,6.9,86,0.00,CLR,,0.00,WeatherDisplay:10.37,2013-01-18 03:12:00,
2013-01-18 03:15:00,28.6,28.3,29.66,SSE,164,1.0,4.0,99,0.00,-SN,-SN,0.00,WeatherDisplay:10.37,2013-01-18 03:15:00,
2013-01-18 03:17:00,33.8,30.3,29.83,SE,135,0.0,3.8,87,0.00,CLR,,0.00,WeatherDisplay:10.37,2013-01-18 03:17:00,
2013-01-18 03:20:00,28.6,28.3,29.66,SSW,194,1.0,4.0,99,0.00,-SN,-SN,0.00,WeatherDisplay:10.37,2013-01-18 03:20:00,
2013-01-18 03:22:00,33.8,30.3,29.83,SSW,202,0.7,3.5,87,0.00,CLR,,0.00,WeatherDisplay:10.37,2013-01-18 03:22:00,
2013-01-18 03:25:00,28.6,28.3,29.65,SW,235,1.0,4.0,99,0.00,-SN,-SN,0.00,WeatherDisplay:10.37,2013-01-18 03:25:00,
2013-01-18 03:27:00,33.8,30.3,29.83,SE,135,1.6,5.8,87,0.00,CLR,,0.00,WeatherDisplay:10.37,2013-01-18 03:27:00,
2013-01-18 03:30:00,28.4,28.2,29.65,South,173,1.0,4.0,99,0.00,-SN,-SN,0.00,WeatherDisplay:10.37,2013-01-18 03:30:00,
2013-01-18 03:32:00,33.6,30.2,29.82,South,180,0.7,5.8,87,0.00,CLR,,0.00,WeatherDisplay:10.37,2013-01-18 03:32:00,
2013-01-18 03:35:00,28.6,28.6,29.65,SSE,157,1.0,3.0,100,0.00,-SN,-SN,0.00,WeatherDisplay:10.37,2013-01-18 03:35:00,
2013-01-18 03:37:00,33.6,30.4,29.82,South,180,1.6,4.5,88,0.00,CLR,,0.00,WeatherDisplay:10.37,2013-01-18 03:37:00,
2013-01-18 03:40:00,28.4,28.4,29.65,West,259,1.0,5.0,100,0.00,-SN,-SN,0.00,WeatherDisplay:10.37,2013-01-18 03:40:00,
2013-01-18 03:42:00,33.6,30.4,29.82,South,180,1.6,4.6,88,0.00,CLR,,0.00,WeatherDisplay:10.37,2013-01-18 03:42:00,
2013-01-18 03:45:00,28.4,28.4,29.64,West,273,2.0,8.0,100,0.00,-SN,-SN,0.00,WeatherDisplay:10.37,2013-01-18 03:45:00,
2013-01-18 03:47:00,33.6,30.4,29.82,SE,135,1.6,3.8,88,0.00,CLR,,0.00,WeatherDisplay:10.37,2013-01-18 03:47:00,
2013-01-18 03:50:00,28.4,28.4,29.64,WNW,303,1.0,8.0,100,0.00,-SN,-SN,0.00,WeatherDisplay:10.37,2013-01-18 03:50:00,
2013-01-18 03:52:00,33.6,30.4,29.82,South,180,0.7,3.5,88,0.00,CLR,,0.00,WeatherDisplay:10.37,2013-01-18 03:52:00,
2013-01-18 03:55:00,28.4,28.4,29.64,NW,322,1.0,4.0,100,0.00,-SN,-SN,0.00,WeatherDisplay:10.37,2013-01-18 03:55:00,
2013-01-18 03:57:00,33.4,30.3,29.82,South,180,0.7,3.5,88,0.00,CLR,,0.00,WeatherDisplay:10.37,2013-01-18 03:57:00,
2013-01-18 04:00:00,28.4,28.4,29.63,ESE,107,2.0,6.0,100,0.00,-SN,-SN,0.00,WeatherDisplay:10.37,2013-01-18 04:00:00,
2013-01-18 04:05:00,28.4,28.4,29.63,SE,144,1.0,6.0,100,0.00,-SN,-SN,0.00,WeatherDisplay:10.37,2013-01-18 04:05:00,
2013-01-18 04:10:00,28.4,28.4,29.63,SSE,153,1.0,3.0,100,0.00,-SN,-SN,0.00,WeatherDisplay:10.37,2013-01-18 04:10:00,
2013-01-18 04:14:00,33.4,30.3,29.81,South,180,1.6,5.8,88,0.00,CLR,,0.00,WeatherDisplay:10.37,2013-01-18 04:14:00,
2013-01-18 04:15:00,28.6,28.6,29.63,SSE,166,1.0,3.0,100,0.00,-SN,-SN,0.00,WeatherDisplay:10.37,2013-01-18 04:15:00,
2013-01-18 04:19:00,33.4,30.3,29.81,South,180,0.0,3.5,88,0.00,CLR,,0.00,WeatherDisplay:10.37,2013-01-18 04:19:00,
2013-01-18 04:20:00,28.6,28.6,29.63,SW,234,1.0,3.0,100,0.00,-SN,-SN,0.00,WeatherDisplay:10.37,2013-01-18 04:20:00,
2013-01-18 04:24:00,33.3,30.1,29.81,ESE,112,0.7,5.8,88,0.00,CLR,,0.00,WeatherDisplay:10.37,2013-01-18 04:24:00,
2013-01-18 04:25:00,28.8,28.8,29.62,South,189,1.0,5.0,100,0.00,-SN,-SN,0.00,WeatherDisplay:10.37,2013-01-18 04:25:00,
2013-01-18 04:29:00,33.3,30.4,29.81,South,180,2.2,5.8,89,0.00,CLR,,0.00,WeatherDisplay:10.37,2013-01-18 04:29:00,
2013-01-18 04:30:00,28.8,28.8,29.62,NE,39,0.0,5.0,100,0.00,-SN,-SN,0.00,WeatherDisplay:10.37,2013-01-18 04:30:00,
2013-01-18 04:34:00,33.3,30.4,29.81,SE,135,1.6,3.1,89,0.00,CLR,,0.00,WeatherDisplay:10.37,2013-01-18 04:34:00,
2013-01-18 04:35:00,28.8,28.8,29.62,WNW,282,1.0,3.0,100,0.00,-SN,-SN,0.00,WeatherDisplay:10.37,2013-01-18 04:35:00,
2013-01-18 04:39:00,33.3,30.4,29.80,WSW,248,1.6,3.8,89,0.00,CLR,,0.00,WeatherDisplay:10.37,2013-01-18 04:39:00,
2013-01-18 04:40:00,28.8,28.8,29.62,West,269,1.0,3.0,100,0.00,-SN,-SN,0.00,WeatherDisplay:10.37,2013-01-18 04:40:00,
2013-01-18 04:44:00,33.3,30.4,29.79,South,180,1.6,3.5,89,0.00,CLR,,0.00,WeatherDisplay:10.37,2013-01-18 04:44:00,
2013-01-18 04:45:00,28.9,28.9,29.61,SE,140,1.0,2.0,100,0.00,-SN,-SN,0.00,WeatherDisplay:10.37,2013-01-18 04:45:00,
2013-01-18 04:49:00,33.1,30.2,29.79,North,0,0.7,5.8,89,0.00,CLR,,0.00,WeatherDisplay:10.37,2013-01-18 04:49:00,
2013-01-18 04:50:00,28.9,28.9,29.61,SW,214,1.0,4.0,100,0.00,-SN,-SN,0.00,WeatherDisplay:10.37,2013-01-18 04:50:00,
2013-01-18 04:54:00,33.1,30.2,29.79,SE,135,1.6,3.8,89,0.00,CLR,,0.00,WeatherDisplay:10.37,2013-01-18 04:54:00,
2013-01-18 04:55:00,28.9,28.9,29.61,South,178,0.0,4.0,100,0.00,-SN,-SN,0.00,WeatherDisplay:10.37,2013-01-18 04:55:00,
2013-01-18 04:59:00,32.9,30.3,29.79,South,180,0.7,3.5,90,0.00,CLR,,0.00,WeatherDisplay:10.37,2013-01-18 04:59:00,
2013-01-18 05:00:00,32.9,30.3,29.79,South,180,0.7,3.5,90,0.00,CLR,,0.00,WeatherDisplay:10.37,2013-01-18 05:00:00,
2013-01-18 05:01:00,32.9,30.3,29.78,ENE,68,0.7,3.5,90,0.00,CLR,,0.00,WeatherDisplay:10.37,2013-01-18 05:01:00,
2013-01-18 05:03:00,32.9,30.3,29.78,North,0,0.7,3.1,90,0.00,CLR,,0.00,WeatherDisplay:10.37,2013-01-18 05:03:00,
2013-01-18 05:04:00,32.9,30.3,29.78,North,0,0.7,3.5,90,0.00,CLR,,0.00,WeatherDisplay:10.37,2013-01-18 05:04:00,
2013-01-18 05:05:00,28.9,28.9,29.59,South,180,0.0,2.0,100,0.00,-SN,-SN,0.00,WeatherDisplay:10.37,2013-01-18 05:05:00,
2013-01-18 05:09:00,32.7,30.1,29.79,South,180,2.2,6.9,90,0.00,CLR,,0.00,WeatherDisplay:10.37,2013-01-18 05:09:00,
2013-01-18 05:10:00,28.9,28.9,29.60,South,177,1.0,2.0,100,0.00,-SN,-SN,0.00,WeatherDisplay:10.37,2013-01-18 05:10:00,
2013-01-18 05:14:00,32.5,29.9,29.79,South,180,1.6,4.6,90,0.00,CLR,,0.00,WeatherDisplay:10.37,2013-01-18 05:14:00,
2013-01-18 05:15:00,28.9,28.9,29.59,SE,143,1.0,3.0,100,0.00,-SN,-SN,0.00,WeatherDisplay:10.37,2013-01-18 05:15:00,
2013-01-18 05:19:00,32.5,29.9,29.78,East,90,0.7,3.5,90,0.00,CLR,,0.00,WeatherDisplay:10.37,2013-01-18 05:19:00,
2013-01-18 05:20:00,28.8,28.8,29.59,NNW,329,0.0,3.0,100,0.00,-SN,-SN,0.00,WeatherDisplay:10.37,2013-01-18 05:20:00,
2013-01-18 05:24:00,32.4,29.8,29.78,East,90,1.6,5.8,90,0.00,CLR,,0.00,WeatherDisplay:10.37,2013-01-18 05:24:00,
2013-01-18 05:25:00,28.9,28.9,29.59,SSE,153,1.0,2.0,100,0.00,-SN,-SN,0.00,WeatherDisplay:10.37,2013-01-18 05:25:00,
2013-01-18 05:29:00,32.4,29.8,29.78,NW,315,0.0,5.8,90,0.00,CLR,,0.00,WeatherDisplay:10.37,2013-01-18 05:29:00,
2013-01-18 05:30:00,28.9,28.9,29.59,ESE,111,1.0,3.0,100,0.00,-SN,-SN,0.00,WeatherDisplay:10.37,2013-01-18 05:30:00,
2013-01-18 05:34:00,32.2,29.8,29.78,SE,135,0.7,5.8,91,0.00,CLR,,0.00,WeatherDisplay:10.37,2013-01-18 05:34:00,
2013-01-18 05:35:00,28.9,28.9,29.59,ENE,58,1.0,3.0,100,0.00,-SN,-SN,0.00,WeatherDisplay:10.37,2013-01-18 05:35:00,
2013-01-18 05:39:00,32.2,29.8,29.78,SE,135,1.6,3.8,91,0.00,CLR,,0.00,WeatherDisplay:10.37,2013-01-18 05:39:00,
2013-01-18 05:40:00,28.8,28.8,29.58,North,351,0.0,2.0,100,0.00,-SN,-SN,0.00,WeatherDisplay:10.37,2013-01-18 05:40:00,
2013-01-18 05:44:00,32.0,29.7,29.78,WSW,248,2.2,6.0,91,0.00,CLR,,0.00,WeatherDisplay:10.37,2013-01-18 05:44:00,
2013-01-18 05:45:00,28.9,28.9,29.58,SSW,211,1.0,4.0,100,0.00,-SN,-SN,0.00,WeatherDisplay:10.37,2013-01-18 05:45:00,
2013-01-18 05:49:00,32.0,29.7,29.78,SE,135,1.6,4.6,91,0.00,CLR,,0.00,WeatherDisplay:10.37,2013-01-18 05:49:00,
2013-01-18 05:50:00,28.9,28.9,29.58,South,180,1.0,4.0,100,0.00,-SN,-SN,0.00,WeatherDisplay:10.37,2013-01-18 05:50:00,
2013-01-18 05:54:00,31.8,29.5,29.77,South,180,0.0,3.5,91,0.00,CLR,,0.00,WeatherDisplay:10.37,2013-01-18 05:54:00,
2013-01-18 05:55:00,28.9,28.9,29.58,ESE,112,1.0,6.0,100,0.00,-SN,-SN,0.00,WeatherDisplay:10.37,2013-01-18 05:55:00,
2013-01-18 05:59:00,31.6,29.3,29.77,South,180,0.7,3.5,91,0.00,CLR,,0.00,WeatherDisplay:10.37,2013-01-18 05:59:00,
2013-01-18 06:00:00,28.9,28.9,29.57,SE,137,2.0,6.0,100,0.00,-SN,-SN,0.00,WeatherDisplay:10.37,2013-01-18 06:00:00,
2013-01-18 06:04:00,31.5,29.1,29.77,WSW,248,0.0,1.6,91,0.00,CLR,,0.00,WeatherDisplay:10.37,2013-01-18 06:04:00,
2013-01-18 06:05:00,28.9,28.9,29.57,SSE,168,1.0,6.0,100,0.00,-SN,-SN,0.00,WeatherDisplay:10.37,2013-01-18 06:05:00,
2013-01-18 06:09:00,31.5,29.1,29.77,South,180,2.2,5.8,91,0.00,CLR,,0.00,WeatherDisplay:10.37,2013-01-18 06:09:00,
2013-01-18 06:10:00,29.1,29.1,29.57,South,182,1.0,3.0,100,0.00,-SN,-SN,0.00,WeatherDisplay:10.37,2013-01-18 06:10:00,
2013-01-18 06:14:00,31.5,29.1,29.76,South,180,3.1,6.0,91,0.00,CLR,,0.00,WeatherDisplay:10.37,2013-01-18 06:14:00,
2013-01-18 06:15:00,29.1,29.1,29.57,SW,234,1.0,4.0,100,0.00,-SN,-SN,0.00,WeatherDisplay:10.37,2013-01-18 06:15:00,
2013-01-18 06:19:00,31.5,28.9,29.76,South,180,2.2,5.4,90,0.00,CLR,,0.00,WeatherDisplay:10.37,2013-01-18 06:19:00,
2013-01-18 06:20:00,29.1,29.1,29.56,SE,146,1.0,4.0,100,0.00,-SN,-SN,0.00,WeatherDisplay:10.37,2013-01-18 06:20:00,
2013-01-18 06:24:00,31.3,28.7,29.76,WSW,248,1.6,3.8,90,0.00,CLR,,0.00,WeatherDisplay:10.37,2013-01-18 06:24:00,
2013-01-18 06:25:00,29.1,29.1,29.56,SSW,203,1.0,4.0,100,0.00,-SN,-SN,0.00,WeatherDisplay:10.37,2013-01-18 06:25:00,
2013-01-18 06:29:00,31.3,28.7,29.75,NW,315,0.7,1.6,90,0.00,CLR,,0.00,WeatherDisplay:10.37,2013-01-18 06:29:00,
2013-01-18 06:30:00,29.1,29.1,29.55,SSW,194,1.0,4.0,100,0.00,-SN,-SN,0.00,WeatherDisplay:10.37,2013-01-18 06:30:00,
2013-01-18 06:34:00,31.1,28.5,29.75,SSW,202,0.7,4.6,90,0.00,CLR,,0.00,WeatherDisplay:10.37,2013-01-18 06:34:00,
2013-01-18 06:35:00,29.3,29.3,29.55,SSE,157,1.0,4.0,100,0.00,-SN,-SN,0.00,WeatherDisplay:10.37,2013-01-18 06:35:00,
2013-01-18 06:39:00,31.1,28.5,29.74,South,180,2.2,6.9,90,0.00,CLR,,0.00,WeatherDisplay:10.37,2013-01-18 06:39:00,
2013-01-18 06:40:00,29.3,29.3,29.55,SSE,158,1.0,4.0,100,0.00,-SN,-SN,0.00,WeatherDisplay:10.37,2013-01-18 06:40:00,
2013-01-18 06:44:00,30.9,28.3,29.74,South,180,0.7,3.8,90,0.00,CLR,,0.00,WeatherDisplay:10.37,2013-01-18 06:44:00,
2013-01-18 06:45:00,29.3,29.3,29.55,SSE,160,0.0,3.0,100,0.00,-SN,-SN,0.00,WeatherDisplay:10.37,2013-01-18 06:45:00,
2013-01-18 06:49:00,30.9,28.3,29.74,South,180,1.6,3.5,90,0.00,CLR,,0.00,WeatherDisplay:10.37,2013-01-18 06:49:00,
2013-01-18 06:50:00,29.3,29.3,29.55,South,169,0.0,2.0,100,0.00,-SN,-SN,0.00,WeatherDisplay:10.37,2013-01-18 06:50:00,
2013-01-18 06:54:00,30.9,28.3,29.73,South,180,1.6,4.5,90,0.00,CLR,,0.00,WeatherDisplay:10.37,2013-01-18 06:54:00,
2013-01-18 06:55:00,29.3,29.3,29.55,SW,225,0.0,2.0,100,0.00,-SN,-SN,0.00,WeatherDisplay:10.37,2013-01-18 06:55:00,
2013-01-18 06:59:00,30.7,28.2,29.73,SE,135,0.7,5.8,90,0.00,CLR,,0.00,WeatherDisplay:10.37,2013-01-18 06:59:00,
2013-01-18 07:00:00,29.5,29.5,29.54,SW,225,0.0,2.0,100,0.00,-SN,-SN,0.00,WeatherDisplay:10.37,2013-01-18 07:00:00,
2013-01-18 07:04:00,30.6,28.0,29.73,NNE,22,0.7,2.3,90,0.00,CLR,,0.00,WeatherDisplay:10.37,2013-01-18 07:04:00,
2013-01-18 07:05:00,29.3,29.3,29.54,NE,35,1.0,2.0,100,0.00,-SN,-SN,0.00,WeatherDisplay:10.37,2013-01-18 07:05:00,
2013-01-18 07:09:00,30.4,27.8,29.73,NE,45,1.6,3.5,90,0.00,CLR,,0.00,WeatherDisplay:10.37,2013-01-18 07:09:00,
2013-01-18 07:10:00,29.3,29.3,29.53,NE,54,1.0,3.0,100,0.00,-SN,-SN,0.00,WeatherDisplay:10.37,2013-01-18 07:10:00,
2013-01-18 07:14:00,30.2,27.6,29.73,South,180,2.2,3.8,90,0.00,CLR,,0.00,WeatherDisplay:10.37,2013-01-18 07:14:00,
2013-01-18 07:15:00,29.3,29.3,29.53,East,100,0.0,3.0,100,0.00,-SN,-SN,0.00,WeatherDisplay:10.37,2013-01-18 07:15:00,
2013-01-18 07:19:00,30.2,27.3,29.73,SE,135,0.7,3.8,89,0.00,CLR,,0.00,WeatherDisplay:10.37,2013-01-18 07:19:00,
2013-01-18 07:20:00,29.3,29.3,29.53,NE,54,0.0,4.0,100,0.00,-SN,-SN,0.00,WeatherDisplay:10.37,2013-01-18 07:20:00,
2013-01-18 07:24:00,30.0,27.2,29.73,SE,135,1.6,3.5,89,0.00,CLR,,0.00,WeatherDisplay:10.37,2013-01-18 07:24:00,
2013-01-18 07:25:00,29.3,29.3,29.52,NW,316,1.0,4.0,100,0.00,-SN,-SN,0.00,WeatherDisplay:10.37,2013-01-18 07:25:00,
2013-01-18 07:29:00,30.0,27.2,29.72,WSW,248,0.0,4.6,89,0.00,CLR,,0.00,WeatherDisplay:10.37,2013-01-18 07:29:00,
2013-01-18 07:30:00,29.5,29.5,29.52,SW,226,0.0,2.0,100,0.00,-SN,-SN,0.00,WeatherDisplay:10.37,2013-01-18 07:30:00,
2013-01-18 07:34:00,29.8,27.3,29.72,East,90,0.7,4.6,90,0.00,CLR,,0.00,WeatherDisplay:10.37,2013-01-18 07:34:00,
2013-01-18 07:35:00,29.5,29.5,29.52,ESE,118,1.0,3.0,100,0.00,-SN,-SN,0.00,WeatherDisplay:10.37,2013-01-18 07:35:00,
2013-01-18 07:39:00,29.8,27.3,29.72,South,180,1.6,5.8,90,0.00,CLR,,0.00,WeatherDisplay:10.37,2013-01-18 07:39:00,
2013-01-18 07:40:00,29.5,29.5,29.51,NE,47,0.0,4.0,100,0.00,-SN,-SN,0.00,WeatherDisplay:10.37,2013-01-18 07:40:00,
2013-01-18 07:44:00,29.7,27.1,29.72,South,180,2.2,4.6,90,0.00,CLR,,0.00,WeatherDisplay:10.37,2013-01-18 07:44:00,
2013-01-18 07:45:00,29.5,29.5,29.51,NNW,337,1.0,4.0,100,0.00,-SN,-SN,0.00,WeatherDisplay:10.37,2013-01-18 07:45:00,
2013-01-18 07:49:00,29.5,26.9,29.71,East,90,0.7,3.5,90,0.00,CLR,,0.00,WeatherDisplay:10.37,2013-01-18 07:49:00,
2013-01-18 07:50:00,29.3,29.3,29.51,ENE,58,1.0,2.0,100,0.00,-SN,-SN,0.00,WeatherDisplay:10.37,2013-01-18 07:50:00,
2013-01-18 07:54:00,29.5,26.9,29.72,WSW,248,0.7,5.8,90,0.00,CLR,,0.00,WeatherDisplay:10.37,2013-01-18 07:54:00,
2013-01-18 07:55:00,29.3,29.3,29.51,SE,139,1.0,3.0,100,0.00,-SN,-SN,0.00,WeatherDisplay:10.37,2013-01-18 07:55:00,
2013-01-18 07:59:00,29.5,26.9,29.72,East,90,1.6,6.9,90,0.00,CLR,,0.00,WeatherDisplay:10.37,2013-01-18 07:59:00,
2013-01-18 08:00:00,29.3,29.3,29.51,South,182,2.0,6.0,100,0.00,-SN,-SN,0.00,WeatherDisplay:10.37,2013-01-18 08:00:00,
2013-01-18 08:04:00,29.3,27.0,29.72,SE,135,1.6,6.9,91,0.00,CLR,,0.00,WeatherDisplay:10.37,2013-01-18 08:04:00,
2013-01-18 08:05:00,29.1,29.1,29.50,WSW,239,3.0,9.0,100,0.00,-SN,-SN,0.00,WeatherDisplay:10.37,2013-01-18 08:05:00,
2013-01-18 08:09:00,29.3,27.0,29.72,South,180,0.7,3.5,91,0.00,CLR,,0.00,WeatherDisplay:10.37,2013-01-18 08:09:00,
2013-01-18 08:10:00,29.1,29.1,29.51,WSW,249,1.0,9.0,100,0.00,-SN,-SN,0.00,WeatherDisplay:10.37,2013-01-18 08:10:00,
2013-01-18 08:15:00,29.5,27.4,29.72,South,180,2.2,4.6,92,0.00,CLR,,0.00,WeatherDisplay:10.37,2013-01-18 08:15:00,
2013-01-18 08:20:00,29.5,27.4,29.72,NNW,338,0.7,2.3,92,0.00,CLR,,0.00,WeatherDisplay:10.37,2013-01-18 08:20:00,
2013-01-18 08:25:00,29.5,27.4,29.72,NE,45,0.0,3.5,92,0.00,CLR,,0.00,WeatherDisplay:10.37,2013-01-18 08:25:00,
2013-01-18 08:30:00,29.5,27.4,29.71,NE,45,0.7,3.8,92,0.00,CLR,,0.00,WeatherDisplay:10.37,2013-01-18 08:30:00,
2013-01-18 08:35:00,29.3,27.3,29.71,East,90,0.0,2.3,92,0.00,CLR,,0.00,WeatherDisplay:10.37,2013-01-18 08:35:00,
2013-01-18 08:40:00,29.3,27.5,29.71,NW,315,2.2,4.5,93,0.00,CLR,,0.00,WeatherDisplay:10.37,2013-01-18 08:40:00,
2013-01-18 08:45:00,29.3,27.3,29.71,South,170,2.0,5.0,92,0.00,-SN,-SN,0.00,WeatherDisplay:10.37,2013-01-18 08:45:00,
2013-01-18 08:50:00,29.3,27.5,29.70,WSW,248,1.6,4.5,93,0.00,CLR,,0.00,WeatherDisplay:10.37,2013-01-18 08:50:00,
2013-01-18 08:55:00,29.1,27.3,29.70,SW,236,1.0,6.0,93,0.00,-SN,-SN,0.00,WeatherDisplay:10.37,2013-01-18 08:55:00,
2013-01-18 09:00:00,28.9,27.4,29.70,South,177,3.0,8.0,94,0.00,-SN,-SN,0.00,WeatherDisplay:10.37,2013-01-18 09:00:00,
2013-01-18 09:05:00,28.9,27.6,29.70,SE,146,2.0,8.0,95,0.00,-SN,-SN,0.00,WeatherDisplay:10.37,2013-01-18 09:05:00,
2013-01-18 09:10:00,28.8,27.5,29.70,SE,139,1.0,6.0,95,0.00,-SN,-SN,0.00,WeatherDisplay:10.37,2013-01-18 09:10:00,
2013-01-18 09:15:00,28.6,27.6,29.70,ESE,114,1.0,5.0,96,0.00,-SN,-SN,0.00,WeatherDisplay:10.37,2013-01-18 09:15:00,
2013-01-18 09:20:00,28.6,27.8,29.70,North,0,0.7,4.5,97,0.00,CLR,,0.00,WeatherDisplay:10.37,2013-01-18 09:20:00,
2013-01-18 09:25:00,28.7,27.9,29.69,SE,133,2.0,6.0,97,0.00,-SN,-SN,0.00,WeatherDisplay:10.37,2013-01-18 09:25:00,
2013-01-18 09:30:00,28.8,28.0,29.69,West,277,1.0,6.0,97,0.00,-SN,-SN,0.00,WeatherDisplay:10.37,2013-01-18 09:30:00,
2013-01-18 09:35:00,28.9,28.1,29.69,WNW,287,0.0,3.0,97,0.00,-SN,-SN,0.00,WeatherDisplay:10.37,2013-01-18 09:35:00,
2013-01-18 09:40:00,28.9,28.4,29.68,West,280,0.0,5.0,98,0.00,-SN,-SN,0.00,WeatherDisplay:10.37,2013-01-18 09:40:00,
2013-01-18 09:45:00,28.9,28.4,29.68,ENE,74,1.0,7.0,98,0.00,-SN,-SN,0.00,WeatherDisplay:10.37,2013-01-18 09:45:00,
2013-01-18 09:50:00,28.8,28.3,29.68,South,180,0.0,3.5,98,0.00,CLR,,0.00,WeatherDisplay:10.37,2013-01-18 09:50:00,
2013-01-18 09:55:00,28.8,28.3,29.67,WSW,248,0.0,3.5,98,0.00,CLR,,0.00,WeatherDisplay:10.37,2013-01-18 09:55:00,
2013-01-18 10:00:00,28.8,28.3,29.67,SE,135,0.7,4.6,98,0.00,CLR,,0.00,WeatherDisplay:10.37,2013-01-18 10:00:00,
2013-01-18 10:05:00,28.6,28.3,29.67,North,0,0.7,3.5,99,0.00,CLR,,0.00,WeatherDisplay:10.37,2013-01-18 10:05:00,
2013-01-18 10:10:00,28.6,28.3,29.67,North,0,0.0,4.6,99,0.00,CLR,,0.00,WeatherDisplay:10.37,2013-01-18 10:10:00,
2013-01-18 10:15:00,28.6,28.3,29.67,SE,135,1.6,5.4,99,0.00,CLR,,0.00,WeatherDisplay:10.37,2013-01-18 10:15:00,
2013-01-18 10:20:00,28.6,28.3,29.66,SSW,202,0.7,4.6,99,0.00,CLR,,0.00,WeatherDisplay:10.37,2013-01-18 10:20:00,
2013-01-18 10:25:00,28.6,28.3,29.66,South,180,0.7,3.5,99,0.00,CLR,,0.00,WeatherDisplay:10.37,2013-01-18 10:25:00,
2013-01-18 10:30:00,28.6,28.3,29.66,South,180,1.6,3.5,99,0.00,CLR,,0.00,WeatherDisplay:10.37,2013-01-18 10:30:00,
2013-01-18 10:35:00,28.4,28.4,29.65,North,0,0.7,2.3,100,0.00,CLR,,0.00,WeatherDisplay:10.37,2013-01-18 10:35:00,
2013-01-18 10:40:00,28.4,28.4,29.65,WSW,248,1.6,3.5,100,0.00,,,0.00,WeatherDisplay:10.37,2013-01-18 10:40:00,
2013-01-18 10:45:00,28.4,28.4,29.65,North,0,1.6,5.8,100,0.00,,,0.00,WeatherDisplay:10.37,2013-01-18 10:45:00,
2013-01-18 10:50:00,28.4,28.4,29.65,NE,45,0.7,8.1,100,0.00,,,0.00,WeatherDisplay:10.37,2013-01-18 10:50:00,
2013-01-18 10:55:00,28.4,28.4,29.64,SE,135,0.7,3.5,100,0.00,,,0.00,WeatherDisplay:10.37,2013-01-18 10:55:00,
2013-01-18 11:00:00,28.4,28.4,29.64,SSW,202,0.7,6.9,100,0.00,,,0.00,WeatherDisplay:10.37,2013-01-18 11:00:00,
2013-01-18 11:05:00,28.4,28.4,29.63,North,0,0.7,5.8,100,0.00,,,0.00,WeatherDisplay:10.37,2013-01-18 11:05:00,
2013-01-18 11:10:00,28.4,28.4,29.63,SE,135,0.7,4.5,100,0.00,,,0.00,WeatherDisplay:10.37,2013-01-18 11:10:00,
2013-01-18 11:15:00,28.4,28.4,29.62,South,180,0.7,4.6,100,0.00,,,0.00,WeatherDisplay:10.37,2013-01-18 11:15:00,
2013-01-18 11:20:00,28.6,28.6,29.62,South,180,0.7,3.5,100,0.00,,,0.00,WeatherDisplay:10.37,2013-01-18 11:20:00,
2013-01-18 11:25:00,28.6,28.6,29.62,East,90,0.7,4.6,100,0.00,,,0.00,WeatherDisplay:10.37,2013-01-18 11:25:00,
2013-01-18 11:30:00,29.8,29.3,29.48,SSW,196,1.0,3.0,98,0.00,-SN,-SN,0.00,WeatherDisplay:10.37,2013-01-18 11:30:00,
2013-01-18 11:31:00,28.8,28.8,29.62,South,180,2.2,5.8,100,0.00,,,0.00,WeatherDisplay:10.37,2013-01-18 11:31:00,
2013-01-18 11:35:00,30.0,29.5,29.49,SSE,158,0.0,3.0,98,0.00,-SN,-SN,0.00,WeatherDisplay:10.37,2013-01-18 11:35:00,
2013-01-18 11:36:00,28.8,28.8,29.62,SE,135,0.7,3.8,100,0.00,,,0.00,WeatherDisplay:10.37,2013-01-18 11:36:00,
2013-01-18 11:40:00,30.0,29.5,29.48,SE,138,1.0,2.0,98,0.00,-SN,-SN,0.00,WeatherDisplay:10.37,2013-01-18 11:40:00,
2013-01-18 11:41:00,28.8,28.8,29.62,SE,135,0.7,3.5,100,0.00,,,0.00,WeatherDisplay:10.37,2013-01-18 11:41:00,
2013-01-18 11:45:00,30.0,29.3,29.48,SSE,159,1.0,3.0,97,0.00,-SN,-SN,0.00,WeatherDisplay:10.37,2013-01-18 11:45:00,
2013-01-18 11:46:00,28.8,28.8,29.62,NW,315,0.7,3.5,100,0.00,,,0.00,WeatherDisplay:10.37,2013-01-18 11:46:00,
2013-01-18 11:50:00,30.0,29.3,29.47,SW,225,1.0,3.0,97,0.00,-SN,-SN,0.00,WeatherDisplay:10.37,2013-01-18 11:50:00,
2013-01-18 11:51:00,28.9,28.9,29.61,South,180,0.7,1.6,100,0.00,,,0.00,WeatherDisplay:10.37,2013-01-18 11:51:00,
2013-01-18 11:55:00,30.0,29.3,29.47,SW,234,0.0,3.0,97,0.00,-SN,-SN,0.00,WeatherDisplay:10.37,2013-01-18 11:55:00,
2013-01-18 11:56:00,28.9,28.9,29.61,South,180,0.7,4.6,100,0.00,,,0.00,WeatherDisplay:10.37,2013-01-18 11:56:00,
2013-01-18 12:00:00,30.0,29.3,29.47,NW,304,0.0,2.0,97,0.00,-SN,-SN,0.00,WeatherDisplay:10.37,2013-01-18 12:00:00,
2013-01-18 12:01:00,28.9,28.9,29.61,WSW,248,1.6,3.8,100,0.00,,,0.00,WeatherDisplay:10.37,2013-01-18 12:01:00,
2013-01-18 12:05:00,30.2,29.5,29.47,North,7,1.0,3.0,97,0.00,-SN,-SN,0.00,WeatherDisplay:10.37,2013-01-18 12:05:00,
2013-01-18 12:06:00,28.9,28.9,29.60,South,180,0.7,2.2,100,0.00,,,0.00,WeatherDisplay:10.37,2013-01-18 12:06:00,
2013-01-18 12:10:00,30.2,29.5,29.47,ESE,111,0.0,3.0,97,0.00,-SN,-SN,0.00,WeatherDisplay:10.37,2013-01-18 12:10:00,
2013-01-18 12:11:00,28.9,28.9,29.60,SSE,158,0.7,2.2,100,0.00,,,0.00,WeatherDisplay:10.37,2013-01-18 12:11:00,
2013-01-18 12:15:00,30.2,29.5,29.47,South,180,1.0,3.0,97,0.00,-SN,-SN,0.00,WeatherDisplay:10.37,2013-01-18 12:15:00,
2013-01-18 12:16:00,28.9,28.9,29.59,South,180,0.7,2.3,100,0.00,,,0.00,WeatherDisplay:10.37,2013-01-18 12:16:00,
2013-01-18 12:20:00,30.2,29.5,29.47,SSE,148,1.0,3.0,97,0.00,-SN,-SN,0.00,WeatherDisplay:10.37,2013-01-18 12:20:00,
2013-01-18 12:21:00,28.8,28.8,29.59,WSW,248,0.7,3.5,100,0.00,,,0.00,WeatherDisplay:10.37,2013-01-18 12:21:00,
2013-01-18 12:25:00,30.2,29.5,29.47,NNE,16,0.0,3.0,97,0.00,-SN,-SN,0.00,WeatherDisplay:10.37,2013-01-18 12:25:00,
2013-01-18 12:26:00,28.9,28.9,29.59,South,180,0.7,3.1,100,0.00,,,0.00,WeatherDisplay:10.37,2013-01-18 12:26:00,
2013-01-18 12:30:00,30.2,29.5,29.47,WSW,248,0.0,2.0,97,0.00,-SN,-SN,0.00,WeatherDisplay:10.37,2013-01-18 12:30:00,
2013-01-18 12:31:00,28.9,28.9,29.59,SE,135,0.7,3.5,100,0.00,,,0.00,WeatherDisplay:10.37,2013-01-18 12:31:00,
2013-01-18 12:35:00,30.2,29.5,29.47,SW,217,0.0,1.0,97,0.00,-SN,-SN,0.00,WeatherDisplay:10.37,2013-01-18 12:35:00,
2013-01-18 12:36:00,28.9,28.9,29.59,NW,315,0.7,3.5,100,0.00,,,0.00,WeatherDisplay:10.37,2013-01-18 12:36:00,
2013-01-18 12:40:00,30.2,29.5,29.47,West,278,0.0,2.0,97,0.00,-SN,-SN,0.00,WeatherDisplay:10.37,2013-01-18 12:40:00,
2013-01-18 12:41:00,28.8,28.8,29.59,SE,135,0.7,3.5,100,0.00,,,0.00,WeatherDisplay:10.37,2013-01-18 12:41:00,
2013-01-18 12:45:00,30.2,29.5,29.47,North,356,1.0,2.0,97,0.00,-SN,-SN,0.00,WeatherDisplay:10.37,2013-01-18 12:45:00,
2013-01-18 12:46:00,28.8,28.8,29.59,NE,45,0.7,2.2,100,0.00,,,0.00,WeatherDisplay:10.37,2013-01-18 12:46:00,
2013-01-18 12:50:00,30.2,29.5,29.47,ENE,63,1.0,2.0,97,0.00,-SN,-SN,0.00,WeatherDisplay:10.37,2013-01-18 12:50:00,
2013-01-18 12:51:00,28.9,28.9,29.58,West,270,0.7,3.5,100,0.00,,,0.00,WeatherDisplay:10.37,2013-01-18 12:51:00,
2013-01-18 12:55:00,30.4,29.6,29.47,ENE,75,1.0,5.0,97,0.00,-SN,-SN,0.00,WeatherDisplay:10.37,2013-01-18 12:55:00,
2013-01-18 12:56:00,28.8,28.8,29.58,West,270,0.0,3.5,100,0.00,,,0.00,WeatherDisplay:10.37,2013-01-18 12:56:00,
2013-01-18 13:00:00,30.4,29.6,29.47,NNE,19,0.0,5.0,97,0.00,-SN,-SN,0.00,WeatherDisplay:10.37,2013-01-18 13:00:00,
2013-01-18 13:01:00,28.9,28.9,29.57,SE,135,0.7,1.6,100,0.00,,,0.00,WeatherDisplay:10.37,2013-01-18 13:01:00,
2013-01-18 13:05:00,30.4,29.6,29.47,ESE,113,1.0,3.0,97,0.00,-SN,-SN,0.00,WeatherDisplay:10.37,2013-01-18 13:05:00,
2013-01-18 13:06:00,28.9,28.9,29.57,South,180,0.0,5.8,100,0.00,,,0.00,WeatherDisplay:10.37,2013-01-18 13:06:00,
2013-01-18 13:10:00,30.6,29.8,29.46,ESE,118,1.0,2.0,97,0.00,-SN,-SN,0.00,WeatherDisplay:10.37,2013-01-18 13:10:00,
2013-01-18 13:11:00,28.9,28.9,29.57,WSW,248,0.0,2.3,100,0.00,,,0.00,WeatherDisplay:10.37,2013-01-18 13:11:00,
2013-01-18 13:15:00,30.6,29.8,29.46,ESE,110,1.0,4.0,97,0.00,-SN,-SN,0.00,WeatherDisplay:10.37,2013-01-18 13:15:00,
2013-01-18 13:16:00,29.1,29.1,29.57,East,90,0.7,3.5,100,0.00,,,0.00,WeatherDisplay:10.37,2013-01-18 13:16:00,
2013-01-18 13:20:00,30.6,29.8,29.46,ESE,103,1.0,4.0,97,0.00,-SN,-SN,0.00,WeatherDisplay:10.37,2013-01-18 13:20:00,
2013-01-18 13:21:00,29.1,29.1,29.56,WSW,248,1.6,3.5,100,0.00,,,0.00,WeatherDisplay:10.37,2013-01-18 13:21:00,
2013-01-18 13:25:00,30.7,30.0,29.46,East,99,0.0,2.0,97,0.00,-SN,-SN,0.00,WeatherDisplay:10.37,2013-01-18 13:25:00,
2013-01-18 13:26:00,29.1,29.1,29.56,ENE,68,2.2,5.8,100,0.00,,,0.00,WeatherDisplay:10.37,2013-01-18 13:26:00,
2013-01-18 13:30:00,30.7,30.0,29.46,East,79,0.0,3.0,97,0.00,-SN,-SN,0.00,WeatherDisplay:10.37,2013-01-18 13:30:00,
2013-01-18 13:31:00,29.1,29.1,29.55,WSW,248,2.2,4.5,100,0.00,,,0.00,WeatherDisplay:10.37,2013-01-18 13:31:00,
2013-01-18 13:35:00,30.7,30.0,29.46,East,97,1.0,5.0,97,0.00,-SN,-SN,0.00,WeatherDisplay:10.37,2013-01-18 13:35:00,
2013-01-18 13:36:00,29.1,29.1,29.55,South,180,0.7,3.5,100,0.00,,,0.00,WeatherDisplay:10.37,2013-01-18 13:36:00,
2013-01-18 13:40:00,30.7,30.0,29.46,South,172,1.0,5.0,97,0.00,-SN,-SN,0.00,WeatherDisplay:10.37,2013-01-18 13:40:00,
2013-01-18 13:41:00,29.3,29.3,29.55,SE,135,2.2,6.0,100,0.00,,,0.00,WeatherDisplay:10.37,2013-01-18 13:41:00,
2013-01-18 13:45:00,30.7,30.0,29.46,North,3,1.0,4.0,97,0.00,-SN,-SN,0.00,WeatherDisplay:10.37,2013-01-18 13:45:00,
2013-01-18 13:46:00,29.3,29.3,29.55,WSW,248,0.7,2.3,100,0.00,,,0.00,WeatherDisplay:10.37,2013-01-18 13:46:00,
2013-01-18 13:50:00,30.7,30.0,29.46,NE,51,1.0,4.0,97,0.00,-SN,-SN,0.00,WeatherDisplay:10.37,2013-01-18 13:50:00,
2013-01-18 13:51:00,29.3,29.3,29.55,NW,315,1.6,3.5,100,0.00,,,0.00,WeatherDisplay:10.37,2013-01-18 13:51:00,
2013-01-18 13:55:00,30.9,29.9,29.46,East,88,1.0,5.0,96,0.00,-SN,-SN,0.00,WeatherDisplay:10.37,2013-01-18 13:55:00,
2013-01-18 13:56:00,29.3,29.3,29.55,South,180,0.7,4.6,100,0.00,,,0.00,WeatherDisplay:10.37,2013-01-18 13:56:00,
2013-01-18 14:00:00,30.9,29.9,29.46,ENE,70,1.0,5.0,96,0.00,-SN,-SN,0.00,WeatherDisplay:10.37,2013-01-18 14:00:00,
2013-01-18 14:01:00,29.5,29.5,29.55,North,0,0.7,3.5,100,0.00,,,0.00,WeatherDisplay:10.37,2013-01-18 14:01:00,
2013-01-18 14:05:00,30.9,29.9,29.46,West,268,1.0,4.0,96,0.00,-SN,-SN,0.00,WeatherDisplay:10.37,2013-01-18 14:05:00,
2013-01-18 14:06:00,29.5,29.5,29.54,NNW,338,0.7,4.6,100,0.00,,,0.00,WeatherDisplay:10.37,2013-01-18 14:06:00,
2013-01-18 14:10:00,30.9,29.9,29.46,West,277,2.0,5.0,96,0.00,-SN,-SN,0.00,WeatherDisplay:10.37,2013-01-18 14:10:00,
2013-01-18 14:11:00,29.3,29.3,29.54,NW,315,0.7,3.8,100,0.00,,,0.00,WeatherDisplay:10.37,2013-01-18 14:11:00,
2013-01-18 14:15:00,30.9,29.9,29.46,NNW,335,0.0,5.0,96,0.00,-SN,-SN,0.00,WeatherDisplay:10.37,2013-01-18 14:15:00,
2013-01-18 14:16:00,29.3,29.3,29.53,SE,135,0.7,3.5,100,0.00,,,0.00,WeatherDisplay:10.37,2013-01-18 14:16:00,
2013-01-18 14:20:00,30.9,29.9,29.46,North,351,1.0,3.0,96,0.00,-SN,-SN,0.00,WeatherDisplay:10.37,2013-01-18 14:20:00,
2013-01-18 14:21:00,29.3,29.3,29.53,North,0,0.7,2.3,100,0.00,,,0.00,WeatherDisplay:10.37,2013-01-18 14:21:00,
2013-01-18 14:25:00,31.1,30.1,29.46,NE,39,0.0,2.0,96,0.00,-SN,-SN,0.00,WeatherDisplay:10.37,2013-01-18 14:25:00,
2013-01-18 14:26:00,29.3,29.3,29.53,South,180,1.6,3.8,100,0.00,,,0.00,WeatherDisplay:10.37,2013-01-18 14:26:00,
2013-01-18 14:30:00,31.1,30.3,29.45,NW,305,1.0,3.0,97,0.00,-SN,-SN,0.00,WeatherDisplay:10.37,2013-01-18 14:30:00,
2013-01-18 14:31:00,29.5,29.5,29.52,East,90,0.7,3.8,100,0.00,,,0.00,WeatherDisplay:10.37,2013-01-18 14:31:00,
2013-01-18 14:35:00,31.1,30.1,29.46,NW,306,1.0,3.0,96,0.00,-SN,-SN,0.00,WeatherDisplay:10.37,2013-01-18 14:35:00,
2013-01-18 14:36:00,29.5,29.5,29.51,South,180,0.7,2.3,100,0.00,,,0.00,WeatherDisplay:10.37,2013-01-18 14:36:00,
2013-01-18 14:40:00,31.1,30.3,29.46,WNW,285,1.0,2.0,97,0.00,-SN,-SN,0.00,WeatherDisplay:10.37,2013-01-18 14:40:00,
2013-01-18 14:41:00,29.5,29.5,29.51,South,180,0.7,3.5,100,0.00,,,0.00,WeatherDisplay:10.37,2013-01-18 14:41:00,
2013-01-18 14:45:00,31.1,30.1,29.46,SW,216,1.0,2.0,96,0.00,-SN,-SN,0.00,WeatherDisplay:10.37,2013-01-18 14:45:00,
2013-01-18 14:46:00,29.5,29.5,29.52,East,90,0.7,5.8,100,0.00,,,0.00,WeatherDisplay:10.37,2013-01-18 14:46:00,
2013-01-18 14:50:00,31.1,30.1,29.46,South,171,0.0,2.0,96,0.00,-SN,-SN,0.00,WeatherDisplay:10.37,2013-01-18 14:50:00,
2013-01-18 14:51:00,29.3,29.3,29.51,SSW,202,0.7,3.5,100,0.00,,,0.00,WeatherDisplay:10.37,2013-01-18 14:51:00,
2013-01-18 14:55:00,31.3,30.3,29.46,SE,145,1.0,4.0,96,0.00,-SN,-SN,0.00,WeatherDisplay:10.37,2013-01-18 14:55:00,
2013-01-18 14:56:00,29.3,29.3,29.51,WSW,248,2.2,6.9,100,0.00,,,0.00,WeatherDisplay:10.37,2013-01-18 14:56:00,
2013-01-18 15:00:00,31.1,30.3,29.46,SSW,210,0.0,4.0,97,0.00,-SN,-SN,0.00,WeatherDisplay:10.37,2013-01-18 15:00:00,
2013-01-18 15:01:00,29.3,29.3,29.51,WSW,248,0.0,4.6,100,0.00,,,0.00,WeatherDisplay:10.37,2013-01-18 15:01:00,
2013-01-18 15:05:00,31.1,30.3,29.46,NW,308,1.0,3.0,97,0.00,-SN,-SN,0.00,WeatherDisplay:10.37,2013-01-18 15:05:00,
2013-01-18 15:06:00,29.3,29.3,29.51,West,270,0.7,3.5,100,0.00,,,0.00,WeatherDisplay:10.37,2013-01-18 15:06:00,
2013-01-18 15:10:00,30.9,30.2,29.46,NW,323,0.0,4.0,97,0.00,-SN,-SN,0.00,WeatherDisplay:10.37,2013-01-18 15:10:00,
2013-01-18 15:12:00,29.3,29.3,29.51,East,90,0.0,9.2,100,0.00,,,0.00,WeatherDisplay:10.37,2013-01-18 15:12:00,
2013-01-18 15:15:00,30.9,30.4,29.46,NNE,22,1.0,4.0,98,0.00,-SN,-SN,0.00,WeatherDisplay:10.37,2013-01-18 15:15:00,
2013-01-18 15:17:00,29.1,29.1,29.51,SE,135,1.6,3.5,100,0.00,,,0.00,WeatherDisplay:10.37,2013-01-18 15:17:00,
2013-01-18 15:20:00,30.9,30.4,29.45,ENE,77,1.0,4.0,98,0.00,-SN,-SN,0.00,WeatherDisplay:10.37,2013-01-18 15:20:00,
2013-01-18 15:22:00,29.1,29.1,29.50,SSW,202,0.0,3.5,100,0.00,,,0.00,WeatherDisplay:10.37,2013-01-18 15:22:00,
2013-01-18 15:25:00,30.9,30.4,29.46,ENE,63,1.0,4.0,98,0.00,-SN,-SN,0.00,WeatherDisplay:10.37,2013-01-18 15:25:00,
2013-01-18 15:27:00,29.1,29.1,29.50,NNW,338,1.6,4.6,100,0.00,,,0.00,WeatherDisplay:10.37,2013-01-18 15:27:00,
2013-01-18 15:30:00,30.9,30.4,29.45,NE,48,0.0,3.0,98,0.00,-SN,-SN,0.00,WeatherDisplay:10.37,2013-01-18 15:30:00,
2013-01-18 15:32:00,29.1,29.1,29.50,South,180,1.6,4.6,100,0.00,,,0.00,WeatherDisplay:10.37,2013-01-18 15:32:00,
2013-01-18 15:35:00,31.1,30.6,29.45,North,11,0.0,1.0,98,0.00,-SN,-SN,0.00,WeatherDisplay:10.37,2013-01-18 15:35:00,
2013-01-18 15:37:00,29.1,28.9,29.50,NE,45,1.6,3.5,99,0.00,CLR,,0.00,WeatherDisplay:10.37,2013-01-18 15:37:00,
2013-01-18 15:40:00,31.1,30.6,29.45,NW,307,0.0,2.0,98,0.00,-SN,-SN,0.00,WeatherDisplay:10.37,2013-01-18 15:40:00,
2013-01-18 15:42:00,29.3,29.1,29.50,South,180,0.0,2.3,99,0.00,CLR,,0.00,WeatherDisplay:10.37,2013-01-18 15:42:00,
2013-01-18 15:45:00,31.1,30.3,29.46,SSW,208,2.0,4.0,97,0.00,-SN,-SN,0.00,WeatherDisplay:10.37,2013-01-18 15:45:00,
2013-01-18 15:47:00,29.3,29.1,29.50,South,180,0.7,3.5,99,0.00,CLR,,0.00,WeatherDisplay:10.37,2013-01-18 15:47:00,
2013-01-18 15:50:00,31.1,30.3,29.46,SW,226,1.0,4.0,97,0.00,-SN,-SN,0.00,WeatherDisplay:10.37,2013-01-18 15:50:00,
2013-01-18 15:52:00,29.3,28.8,29.50,WSW,248,0.7,3.5,98,0.00,CLR,,0.00,WeatherDisplay:10.37,2013-01-18 15:52:00,
2013-01-18 15:55:00,31.3,30.5,29.45,West,267,0.0,2.0,97,0.00,-SN,-SN,0.00,WeatherDisplay:10.37,2013-01-18 15:55:00,
2013-01-18 15:57:00,29.3,28.8,29.50,ENE,68,0.7,3.5,98,0.00,CLR,,0.00,WeatherDisplay:10.37,2013-01-18 15:57:00,
2013-01-18 16:00:00,31.3,30.5,29.45,West,259,1.0,6.0,97,0.00,-SN,-SN,0.00,WeatherDisplay:10.37,2013-01-18 16:00:00,
2013-01-18 16:02:00,29.3,28.8,29.50,West,270,0.0,4.6,98,0.00,CLR,,0.00,WeatherDisplay:10.37,2013-01-18 16:02:00,
2013-01-18 16:05:00,31.3,30.5,29.45,SSW,206,1.0,6.0,97,0.00,-SN,-SN,0.00,WeatherDisplay:10.37,2013-01-18 16:05:00,
2013-01-18 16:07:00,29.3,28.6,29.50,North,0,1.6,5.8,97,0.00,CLR,,0.00,WeatherDisplay:10.37,2013-01-18 16:07:00,
2013-01-18 16:10:00,31.3,30.5,29.44,SSW,202,1.0,4.0,97,0.00,-SN,-SN,0.00,WeatherDisplay:10.37,2013-01-18 16:10:00,
2013-01-18 16:12:00,29.3,28.6,29.49,South,180,0.7,2.3,97,0.00,CLR,,0.00,WeatherDisplay:10.37,2013-01-18 16:12:00,
2013-01-18 16:15:00,31.3,30.5,29.45,NNW,342,1.0,4.0,97,0.00,-SN,-SN,0.00,WeatherDisplay:10.37,2013-01-18 16:15:00,
2013-01-18 16:17:00,29.3,28.6,29.50,South,180,1.6,3.8,97,0.00,CLR,,0.00,WeatherDisplay:10.37,2013-01-18 16:17:00,
2013-01-18 16:20:00,31.3,30.5,29.45,WNW,299,0.0,3.0,97,0.00,-SN,-SN,0.00,WeatherDisplay:10.37,2013-01-18 16:20:00,
2013-01-18 16:22:00,29.3,28.3,29.50,South,180,1.6,5.8,96,0.00,CLR,,0.00,WeatherDisplay:10.37,2013-01-18 16:22:00,
2013-01-18 16:25:00,31.3,30.5,29.44,South,174,0.0,2.0,97,0.00,-SN,-SN,0.00,WeatherDisplay:10.37,2013-01-18 16:25:00,
2013-01-18 16:27:00,29.3,28.3,29.49,WSW,248,2.2,3.8,96,0.00,CLR,,0.00,WeatherDisplay:10.37,2013-01-18 16:27:00,
2013-01-18 16:30:00,31.3,30.5,29.44,East,87,0.0,2.0,97,0.00,-SN,-SN,0.00,WeatherDisplay:10.37,2013-01-18 16:30:00,
2013-01-18 16:32:00,29.5,28.5,29.49,WSW,248,0.7,4.6,96,0.00,CLR,,0.00,WeatherDisplay:10.37,2013-01-18 16:32:00,
2013-01-18 16:35:00,31.3,30.8,29.44,NE,50,0.0,2.0,98,0.00,-SN,-SN,0.00,WeatherDisplay:10.37,2013-01-18 16:35:00,
2013-01-18 16:37:00,29.5,28.5,29.49,NE,45,1.6,3.8,96,0.00,CLR,,0.00,WeatherDisplay:10.37,2013-01-18 16:37:00,
2013-01-18 16:40:00,31.3,30.8,29.44,ESE,123,1.0,4.0,98,0.00,-SN,-SN,0.00,WeatherDisplay:10.37,2013-01-18 16:40:00,
2013-01-18 16:42:00,29.5,28.5,29.50,East,90,0.7,3.5,96,0.00,CLR,,0.00,WeatherDisplay:10.37,2013-01-18 16:42:00,
2013-01-18 16:45:00,31.3,30.8,29.44,WNW,290,0.0,4.0,98,0.00,-SN,-SN,0.00,WeatherDisplay:10.37,2013-01-18 16:45:00,
2013-01-18 16:47:00,29.5,28.5,29.49,SE,135,0.7,4.6,96,0.00,CLR,,0.00,WeatherDisplay:10.37,2013-01-18 16:47:00,
2013-01-18 16:50:00,31.3,30.8,29.44,North,1,1.0,3.0,98,0.00,-SN,-SN,0.00,WeatherDisplay:10.37,2013-01-18 16:50:00,
2013-01-18 16:52:00,29.5,28.5,29.49,NE,45,0.7,3.5,96,0.00,CLR,,0.00,WeatherDisplay:10.37,2013-01-18 16:52:00,
2013-01-18 16:55:00,31.3,30.8,29.44,ENE,70,0.0,3.0,98,0.00,-SN,-SN,0.00,WeatherDisplay:10.37,2013-01-18 16:55:00,
2013-01-18 16:57:00,29.7,28.7,29.50,NW,315,0.7,2.3,96,0.00,CLR,,0.00,WeatherDisplay:10.37,2013-01-18 16:57:00,
2013-01-18 17:00:00,31.1,30.6,29.44,NNE,18,1.0,3.0,98,0.00,-SN,-SN,0.00,WeatherDisplay:10.37,2013-01-18 17:00:00,
2013-01-18 17:02:00,29.7,28.7,29.50,WSW,248,0.7,3.5,96,0.00,CLR,,0.00,WeatherDisplay:10.37,2013-01-18 17:02:00,
2013-01-18 17:05:00,31.1,30.6,29.44,NNW,343,1.0,3.0,98,0.00,-SN,-SN,0.00,WeatherDisplay:10.37,2013-01-18 17:05:00,
2013-01-18 17:07:00,29.7,28.7,29.50,SSW,202,0.7,3.5,96,0.00,CLR,,0.00,WeatherDisplay:10.37,2013-01-18 17:07:00,
2013-01-18 17:10:00,31.1,30.6,29.43,NNW,347,1.0,2.0,98,0.00,-SN,-SN,0.00,WeatherDisplay:10.37,2013-01-18 17:10:00,
2013-01-18 17:12:00,29.7,28.7,29.50,South,180,0.0,1.1,96,0.00,CLR,,0.00,WeatherDisplay:10.37,2013-01-18 17:12:00,
2013-01-18 17:15:00,31.1,30.9,29.43,NE,44,1.0,3.0,99,0.00,-SN,-SN,0.00,WeatherDisplay:10.37,2013-01-18 17:15:00,
2013-01-18 17:17:00,29.7,28.7,29.49,West,270,0.0,1.6,96,0.00,CLR,,0.00,WeatherDisplay:10.37,2013-01-18 17:17:00,
2013-01-18 17:20:00,31.1,30.9,29.43,East,91,0.0,3.0,99,0.00,-SN,-SN,0.00,WeatherDisplay:10.37,2013-01-18 17:20:00,
2013-01-18 17:22:00,29.7,28.7,29.49,North,0,0.0,1.6,96,0.00,CLR,,0.00,WeatherDisplay:10.37,2013-01-18 17:22:00,
2013-01-18 17:25:00,31.1,30.9,29.43,SE,146,0.0,2.0,99,0.00,-SN,-SN,0.00,WeatherDisplay:10.37,2013-01-18 17:25:00,
2013-01-18 17:27:00,29.7,28.9,29.49,NE,45,0.0,3.5,97,0.00,CLR,,0.00,WeatherDisplay:10.37,2013-01-18 17:27:00,
2013-01-18 17:30:00,31.1,30.9,29.43,SE,128,1.0,2.0,99,0.00,-SN,-SN,0.00,WeatherDisplay:10.37,2013-01-18 17:30:00,
2013-01-18 17:32:00,29.7,28.9,29.49,WSW,248,0.7,3.1,97,0.00,CLR,,0.00,WeatherDisplay:10.37,2013-01-18 17:32:00,
2013-01-18 17:35:00,31.1,30.9,29.43,NNE,24,0.0,2.0,99,0.00,-SN,-SN,0.00,WeatherDisplay:10.37,2013-01-18 17:35:00,
2013-01-18 17:37:00,29.7,28.9,29.50,SE,135,0.7,3.5,97,0.00,CLR,,0.00,WeatherDisplay:10.37,2013-01-18 17:37:00,
2013-01-18 17:40:00,31.1,30.9,29.43,NW,310,0.0,2.0,99,0.00,-SN,-SN,0.00,WeatherDisplay:10.37,2013-01-18 17:40:00,
2013-01-18 17:42:00,29.7,28.9,29.50,North,0,0.0,4.6,97,0.00,CLR,,0.00,WeatherDisplay:10.37,2013-01-18 17:42:00,
2013-01-18 17:45:00,31.1,30.9,29.43,WNW,295,0.0,2.0,99,0.00,-SN,-SN,0.00,WeatherDisplay:10.37,2013-01-18 17:45:00,
2013-01-18 17:47:00,29.7,28.9,29.49,South,180,0.0,3.5,97,0.00,CLR,,0.00,WeatherDisplay:10.37,2013-01-18 17:47:00,
2013-01-18 17:50:00,31.1,30.9,29.42,NW,304,0.0,2.0,99,0.00,-SN,-SN,0.00,WeatherDisplay:10.37,2013-01-18 17:50:00,
2013-01-18 17:52:00,29.7,28.9,29.49,East,90,1.6,4.6,97,0.00,CLR,,0.00,WeatherDisplay:10.37,2013-01-18 17:52:00,
2013-01-18 17:55:00,31.1,30.9,29.42,WNW,303,1.0,3.0,99,0.00,-SN,-SN,0.00,WeatherDisplay:10.37,2013-01-18 17:55:00,
2013-01-18 17:58:00,29.7,28.9,29.49,East,90,0.0,3.5,97,0.00,CLR,,0.00,WeatherDisplay:10.37,2013-01-18 17:58:00,
2013-01-18 18:00:00,31.1,30.9,29.42,WNW,300,1.0,3.0,99,0.00,-SN,-SN,0.00,WeatherDisplay:10.37,2013-01-18 18:00:00,
2013-01-18 18:03:00,29.7,28.9,29.49,NE,45,0.0,2.3,97,0.00,CLR,,0.00,WeatherDisplay:10.37,2013-01-18 18:03:00,
2013-01-18 18:05:00,31.1,30.9,29.42,ESE,120,0.0,2.0,99,0.00,-SN,-SN,0.00,WeatherDisplay:10.37,2013-01-18 18:05:00,
2013-01-18 18:08:00,29.7,29.2,29.48,South,180,0.7,3.5,98,0.00,CLR,,0.00,WeatherDisplay:10.37,2013-01-18 18:08:00,
2013-01-18 18:10:00,31.1,30.9,29.42,ESE,106,0.0,1.0,99,0.00,-SN,-SN,0.00,WeatherDisplay:10.37,2013-01-18 18:10:00,
2013-01-18 18:13:00,29.7,29.2,29.48,NE,45,0.0,4.6,98,0.00,CLR,,0.00,WeatherDisplay:10.37,2013-01-18 18:13:00,
2013-01-18 18:15:00,31.1,30.9,29.42,ENE,62,0.0,2.0,99,0.00,-SN,-SN,0.00,WeatherDisplay:10.37,2013-01-18 18:15:00,
2013-01-18 18:18:00,29.8,29.3,29.49,NW,315,0.7,2.2,98,0.00,CLR,,0.00,WeatherDisplay:10.37,2013-01-18 18:18:00,
2013-01-18 18:20:00,31.1,30.9,29.42,NW,310,0.0,2.0,99,0.00,-SN,-SN,0.00,WeatherDisplay:10.37,2013-01-18 18:20:00,
2013-01-18 18:23:00,29.8,29.3,29.49,South,180,0.0,3.5,98,0.00,CLR,,0.00,WeatherDisplay:10.37,2013-01-18 18:23:00,
2013-01-18 18:25:00,31.1,30.9,29.43,SW,214,0.0,2.0,99,0.00,-SN,-SN,0.00,WeatherDisplay:10.37,2013-01-18 18:25:00,
2013-01-18 18:28:00,29.8,29.3,29.48,East,90,0.7,3.1,98,0.00,CLR,,0.00,WeatherDisplay:10.37,2013-01-18 18:28:00,
2013-01-18 18:30:00,31.1,30.9,29.42,South,174,0.0,2.0,99,0.00,-SN,-SN,0.00,WeatherDisplay:10.37,2013-01-18 18:30:00,
2013-01-18 18:33:00,29.8,29.3,29.48,WSW,248,0.7,3.8,98,0.00,CLR,,0.00,WeatherDisplay:10.37,2013-01-18 18:33:00,
2013-01-18 18:35:00,31.1,30.9,29.42,ESE,120,0.0,4.0,99,0.00,-SN,-SN,0.00,WeatherDisplay:10.37,2013-01-18 18:35:00,
2013-01-18 18:38:00,30.0,29.5,29.49,SE,135,0.7,3.5,98,0.00,CLR,,0.00,WeatherDisplay:10.37,2013-01-18 18:38:00,
2013-01-18 18:40:00,31.1,30.9,29.42,ENE,68,0.0,4.0,99,0.00,-SN,-SN,0.00,WeatherDisplay:10.37,2013-01-18 18:40:00,
2013-01-18 18:43:00,30.0,29.5,29.48,North,0,1.6,3.8,98,0.00,CLR,,0.00,WeatherDisplay:10.37,2013-01-18 18:43:00,
2013-01-18 18:45:00,31.1,30.9,29.42,ENE,69,1.0,3.0,99,0.00,-SN,-SN,0.00,WeatherDisplay:10.37,2013-01-18 18:45:00,
2013-01-18 18:48:00,30.0,29.3,29.48,North,0,0.7,5.8,97,0.00,CLR,,0.00,WeatherDisplay:10.37,2013-01-18 18:48:00,
2013-01-18 18:50:00,31.1,30.9,29.42,ENE,63,0.0,3.0,99,0.00,-SN,-SN,0.00,WeatherDisplay:10.37,2013-01-18 18:50:00,
2013-01-18 18:53:00,30.0,29.3,29.48,NE,45,0.7,3.5,97,0.00,CLR,,0.00,WeatherDisplay:10.37,2013-01-18 18:53:00,
2013-01-18 18:55:00,31.1,30.9,29.42,North,350,0.0,2.0,99,0.00,-SN,-SN,0.00,WeatherDisplay:10.37,2013-01-18 18:55:00,
2013-01-18 18:58:00,30.0,29.3,29.48,WSW,248,0.0,3.5,97,0.00,CLR,,0.00,WeatherDisplay:10.37,2013-01-18 18:58:00,
2013-01-18 19:00:00,31.1,30.9,29.43,NNE,27,0.0,2.0,99,0.00,-SN,-SN,0.00,WeatherDisplay:10.37,2013-01-18 19:00:00,
2013-01-18 19:03:00,30.0,29.3,29.47,NE,45,0.7,3.5,97,0.00,CLR,,0.00,WeatherDisplay:10.37,2013-01-18 19:03:00,
2013-01-18 19:05:00,31.1,30.9,29.43,SW,216,0.0,2.0,99,0.00,-SN,-SN,0.00,WeatherDisplay:10.37,2013-01-18 19:05:00,
2013-01-18 19:08:00,30.0,29.3,29.47,WSW,248,0.0,3.5,97,0.00,CLR,,0.00,WeatherDisplay:10.37,2013-01-18 19:08:00,
2013-01-18 19:10:00,31.1,30.9,29.43,NW,325,0.0,2.0,99,0.00,-SN,-SN,0.00,WeatherDisplay:10.37,2013-01-18 19:10:00,
2013-01-18 19:13:00,30.2,29.5,29.47,South,180,0.0,2.3,97,0.00,CLR,,0.00,WeatherDisplay:10.37,2013-01-18 19:13:00,
2013-01-18 19:15:00,31.1,30.9,29.42,NNE,31,0.0,2.0,99,0.00,-SN,-SN,0.00,WeatherDisplay:10.37,2013-01-18 19:15:00,
2013-01-18 19:18:00,30.2,29.5,29.47,North,0,0.7,3.5,97,0.00,CLR,,0.00,WeatherDisplay:10.37,2013-01-18 19:18:00,
2013-01-18 19:20:00,31.1,30.9,29.42,ENE,72,0.0,2.0,99,0.00,-SN,-SN,0.00,WeatherDisplay:10.37,2013-01-18 19:20:00,
2013-01-18 19:23:00,30.2,29.5,29.47,East,90,1.6,4.5,97,0.00,CLR,,0.00,WeatherDisplay:10.37,2013-01-18 19:23:00,
2013-01-18 19:25:00,31.1,30.9,29.43,East,90,0.0,2.0,99,0.00,-SN,-SN,0.00,WeatherDisplay:10.37,2013-01-18 19:25:00,
2013-01-18 19:28:00,30.2,29.5,29.47,NW,315,0.7,3.8,97,0.00,CLR,,0.00,WeatherDisplay:10.37,2013-01-18 19:28:00,
2013-01-18 19:30:00,31.1,31.1,29.43,East,93,0.0,2.0,100,0.00,-SN,-SN,0.00,WeatherDisplay:10.37,2013-01-18 19:30:00,
2013-01-18 19:33:00,30.2,29.5,29.47,SE,135,0.0,3.1,97,0.00,CLR,,0.00,WeatherDisplay:10.37,2013-01-18 19:33:00,
2013-01-18 19:35:00,31.1,30.9,29.43,South,173,0.0,2.0,99,0.00,-SN,-SN,0.00,WeatherDisplay:10.37,2013-01-18 19:35:00,
2013-01-18 19:38:00,30.2,29.5,29.47,NW,315,0.0,1.1,97,0.00,CLR,,0.00,WeatherDisplay:10.37,2013-01-18 19:38:00,
2013-01-18 19:40:00,31.1,30.9,29.43,South,181,0.0,2.0,99,0.00,-SN,-SN,0.00,WeatherDisplay:10.37,2013-01-18 19:40:00,
2013-01-18 19:43:00,30.2,29.5,29.47,NNE,22,0.0,1.6,97,0.00,CLR,,0.00,WeatherDisplay:10.37,2013-01-18 19:43:00,
2013-01-18 19:45:00,31.3,31.0,29.42,WSW,237,0.0,1.0,99,0.00,-SN,-SN,0.00,WeatherDisplay:10.37,2013-01-18 19:45:00,
2013-01-18 19:48:00,30.2,29.5,29.47,ENE,68,0.0,1.6,97,0.00,CLR,,0.00,WeatherDisplay:10.37,2013-01-18 19:48:00,
2013-01-18 19:50:00,31.3,31.0,29.42,West,273,1.0,2.0,99,0.00,-SN,-SN,0.00,WeatherDisplay:10.37,2013-01-18 19:50:00,
2013-01-18 19:53:00,30.2,29.5,29.47,ENE,68,0.0,3.5,97,0.00,CLR,,0.00,WeatherDisplay:10.37,2013-01-18 19:53:00,
2013-01-18 19:55:00,31.3,31.0,29.42,WNW,286,1.0,2.0,99,0.00,-SN,-SN,0.00,WeatherDisplay:10.37,2013-01-18 19:55:00,
2013-01-18 19:58:00,30.4,29.6,29.47,East,90,0.0,1.1,97,0.00,CLR,,0.00,WeatherDisplay:10.37,2013-01-18 19:58:00,
2013-01-18 20:00:00,31.3,31.0,29.42,WNW,289,0.0,2.0,99,0.00,-SN,-SN,0.00,WeatherDisplay:10.37,2013-01-18 20:00:00,
2013-01-18 20:03:00,30.4,29.6,29.47,SE,135,0.0,3.5,97,0.00,CLR,,0.00,WeatherDisplay:10.37,2013-01-18 20:03:00,
2013-01-18 20:05:00,31.3,31.0,29.42,North,11,0.0,2.0,99,0.00,-SN,-SN,0.00,WeatherDisplay:10.37,2013-01-18 20:05:00,
2013-01-18 20:08:00,30.4,29.6,29.47,SE,135,0.7,3.8,97,0.00,CLR,,0.00,WeatherDisplay:10.37,2013-01-18 20:08:00,
2013-01-18 20:10:00,31.3,31.0,29.42,North,359,1.0,2.0,99,0.00,-SN,-SN,0.00,WeatherDisplay:10.37,2013-01-18 20:10:00,
2013-01-18 20:13:00,30.6,29.8,29.47,NE,45,0.7,3.5,97,0.00,CLR,,0.00,WeatherDisplay:10.37,2013-01-18 20:13:00,
2013-01-18 20:15:00,31.3,31.0,29.42,NNE,21,0.0,2.0,99,0.00,-SN,-SN,0.00,WeatherDisplay:10.37,2013-01-18 20:15:00,
2013-01-18 20:18:00,30.6,29.8,29.47,SE,135,0.0,5.8,97,0.00,CLR,,0.00,WeatherDisplay:10.37,2013-01-18 20:18:00,
2013-01-18 20:20:00,31.3,31.0,29.42,ESE,119,1.0,2.0,99,0.00,-SN,-SN,0.00,WeatherDisplay:10.37,2013-01-18 20:20:00,
2013-01-18 20:23:00,30.6,29.8,29.46,SE,135,0.7,4.6,97,0.00,CLR,,0.00,WeatherDisplay:10.37,2013-01-18 20:23:00,
2013-01-18 20:25:00,31.5,31.2,29.42,ESE,121,1.0,2.0,99,0.00,-SN,-SN,0.00,WeatherDisplay:10.37,2013-01-18 20:25:00,
2013-01-18 20:28:00,30.6,29.8,29.46,SSW,202,0.0,2.3,97,0.00,CLR,,0.00,WeatherDisplay:10.37,2013-01-18 20:28:00,
2013-01-18 20:30:00,31.5,31.2,29.42,SSE,157,0.0,2.0,99,0.00,-SN,-SN,0.00,WeatherDisplay:10.37,2013-01-18 20:30:00,
2013-01-18 20:34:00,30.7,30.0,29.46,NE,45,0.7,3.5,97,0.00,CLR,,0.00,WeatherDisplay:10.37,2013-01-18 20:34:00,
2013-01-18 20:35:00,31.5,31.2,29.42,SW,232,1.0,2.0,99,0.00,-SN,-SN,0.00,WeatherDisplay:10.37,2013-01-18 20:35:00,
2013-01-18 20:39:00,30.7,30.0,29.46,South,180,0.7,3.5,97,0.00,CLR,,0.00,WeatherDisplay:10.37,2013-01-18 20:39:00,
2013-01-18 20:40:00,31.5,31.5,29.41,WNW,303,0.0,2.0,100,0.00,-SN,-SN,0.00,WeatherDisplay:10.37,2013-01-18 20:40:00,
2013-01-18 20:44:00,30.7,30.0,29.46,East,90,1.6,3.8,97,0.00,CLR,,0.00,WeatherDisplay:10.37,2013-01-18 20:44:00,
2013-01-18 20:45:00,31.5,31.5,29.41,North,6,0.0,2.0,100,0.00,-SN,-SN,0.00,WeatherDisplay:10.37,2013-01-18 20:45:00,
2013-01-18 20:49:00,30.9,30.2,29.46,SE,135,0.7,3.1,97,0.00,CLR,,0.00,WeatherDisplay:10.37,2013-01-18 20:49:00,
2013-01-18 20:50:00,31.6,31.6,29.41,ENE,72,0.0,2.0,100,0.00,-SN,-SN,0.00,WeatherDisplay:10.37,2013-01-18 20:50:00,
2013-01-18 20:54:00,30.7,30.0,29.46,SE,135,0.7,2.3,97,0.00,CLR,,0.00,WeatherDisplay:10.37,2013-01-18 20:54:00,
2013-01-18 20:55:00,31.6,31.6,29.41,West,271,0.0,2.0,100,0.00,-SN,-SN,0.00,WeatherDisplay:10.37,2013-01-18 20:55:00,
2013-01-18 20:59:00,30.9,29.9,29.46,NNE,22,0.7,5.8,96,0.00,CLR,,0.00,WeatherDisplay:10.37,2013-01-18 20:59:00,
2013-01-18 21:00:00,31.6,31.6,29.41,NNW,338,0.0,2.0,100,0.00,-SN,-SN,0.00,WeatherDisplay:10.37,2013-01-18 21:00:00,
2013-01-18 21:04:00,30.9,29.9,29.46,NNE,22,0.0,3.8,96,0.00,CLR,,0.00,WeatherDisplay:10.37,2013-01-18 21:04:00,
2013-01-18 21:05:00,31.6,31.6,29.41,NE,39,0.0,2.0,100,0.00,-SN,-SN,0.00,WeatherDisplay:10.37,2013-01-18 21:05:00,
2013-01-18 21:09:00,30.9,29.9,29.46,South,180,0.7,1.6,96,0.00,CLR,,0.00,WeatherDisplay:10.37,2013-01-18 21:09:00,
2013-01-18 21:10:00,31.6,31.6,29.41,ENE,59,0.0,2.0,100,0.00,-SN,-SN,0.00,WeatherDisplay:10.37,2013-01-18 21:10:00,
2013-01-18 21:14:00,30.9,29.9,29.46,NW,315,2.2,5.4,96,0.00,CLR,,0.00,WeatherDisplay:10.37,2013-01-18 21:14:00,
2013-01-18 21:15:00,31.6,31.6,29.41,ENE,76,0.0,2.0,100,0.00,-SN,-SN,0.00,WeatherDisplay:10.37,2013-01-18 21:15:00,
2013-01-18 21:19:00,30.9,29.9,29.46,ENE,68,0.0,2.3,96,0.00,CLR,,0.00,WeatherDisplay:10.37,2013-01-18 21:19:00,
2013-01-18 21:20:00,31.8,31.8,29.41,ESE,115,1.0,3.0,100,0.00,-SN,-SN,0.00,WeatherDisplay:10.37,2013-01-18 21:20:00,
2013-01-18 21:24:00,30.9,29.9,29.46,East,90,0.0,2.3,96,0.00,CLR,,0.00,WeatherDisplay:10.37,2013-01-18 21:24:00,
2013-01-18 21:25:00,31.8,31.8,29.41,SE,127,0.0,3.0,100,0.00,-SN,-SN,0.00,WeatherDisplay:10.37,2013-01-18 21:25:00,
2013-01-18 21:29:00,31.1,30.1,29.46,West,270,2.2,3.8,96,0.00,CLR,,0.00,WeatherDisplay:10.37,2013-01-18 21:29:00,
2013-01-18 21:30:00,31.8,31.8,29.41,SE,135,0.0,2.0,100,0.00,-SN,-SN,0.00,WeatherDisplay:10.37,2013-01-18 21:30:00,
2013-01-18 21:34:00,31.1,30.3,29.45,NNE,22,0.7,5.8,97,0.00,CLR,,0.00,WeatherDisplay:10.37,2013-01-18 21:34:00,
2013-01-18 21:35:00,31.8,31.8,29.40,SSW,204,1.0,2.0,100,0.00,-SN,-SN,0.00,WeatherDisplay:10.37,2013-01-18 21:35:00,
2013-01-18 21:39:00,31.1,30.3,29.46,South,180,0.7,3.5,97,0.00,CLR,,0.00,WeatherDisplay:10.37,2013-01-18 21:39:00,
2013-01-18 21:40:00,32.0,32.0,29.40,WNW,294,1.0,2.0,100,0.00,-SN,-SN,0.00,WeatherDisplay:10.37,2013-01-18 21:40:00,
2013-01-18 21:44:00,31.1,30.3,29.46,ENE,68,0.7,4.6,97,0.00,CLR,,0.00,WeatherDisplay:10.37,2013-01-18 21:44:00,
2013-01-18 21:45:00,32.0,32.0,29.41,NE,41,0.0,2.0,100,0.00,-SN,-SN,0.00,WeatherDisplay:10.37,2013-01-18 21:45:00,
2013-01-18 21:49:00,31.1,30.1,29.45,SSW,202,0.0,2.2,96,0.00,CLR,,0.00,WeatherDisplay:10.37,2013-01-18 21:49:00,
2013-01-18 21:50:00,32.0,32.0,29.41,NNE,28,1.0,2.0,100,0.00,-SN,-SN,0.00,WeatherDisplay:10.37,2013-01-18 21:50:00,
2013-01-18 21:54:00,31.1,30.1,29.46,SE,135,0.0,3.5,96,0.00,CLR,,0.00,WeatherDisplay:10.37,2013-01-18 21:54:00,
2013-01-18 21:55:00,32.0,32.0,29.41,NNE,15,1.0,2.0,100,0.00,-SN,-SN,0.00,WeatherDisplay:10.37,2013-01-18 21:55:00,
2013-01-18 21:59:00,31.3,30.3,29.46,WNW,292,0.7,3.8,96,0.00,CLR,,0.00,WeatherDisplay:10.37,2013-01-18 21:59:00,
2013-01-18 22:00:00,32.0,32.0,29.40,ESE,122,0.0,2.0,100,0.00,-SN,-SN,0.00,WeatherDisplay:10.37,2013-01-18 22:00:00,
2013-01-18 22:04:00,31.1,30.3,29.46,NW,315,0.0,3.5,97,0.00,CLR,,0.00,WeatherDisplay:10.37,2013-01-18 22:04:00,
2013-01-18 22:05:00,32.0,32.0,29.40,SE,145,0.0,2.0,100,0.00,-SN,-SN,0.00,WeatherDisplay:10.37,2013-01-18 22:05:00,
2013-01-18 22:09:00,31.1,30.3,29.46,SE,135,0.7,2.3,97,0.00,CLR,,0.00,WeatherDisplay:10.37,2013-01-18 22:09:00,
2013-01-18 22:10:00,32.0,32.0,29.40,NNE,23,0.0,2.0,100,0.00,-SN,-SN,0.00,WeatherDisplay:10.37,2013-01-18 22:10:00,
2013-01-18 22:14:00,30.9,30.2,29.46,NE,45,0.0,3.8,97,0.00,CLR,,0.00,WeatherDisplay:10.37,2013-01-18 22:14:00,
2013-01-18 22:15:00,32.0,32.0,29.40,NNE,24,1.0,3.0,100,0.00,-SN,-SN,0.00,WeatherDisplay:10.37,2013-01-18 22:15:00,
2013-01-18 22:19:00,30.9,30.4,29.46,South,180,0.7,4.6,98,0.00,CLR,,0.00,WeatherDisplay:10.37,2013-01-18 22:19:00,
2013-01-18 22:20:00,32.0,32.0,29.41,NE,35,0.0,3.0,100,0.00,-SN,-SN,0.00,WeatherDisplay:10.37,2013-01-18 22:20:00,
2013-01-18 22:24:00,30.9,30.4,29.45,East,90,0.0,4.6,98,0.00,CLR,,0.00,WeatherDisplay:10.37,2013-01-18 22:24:00,
2013-01-18 22:25:00,32.0,32.0,29.41,East,100,0.0,4.0,100,0.00,-SN,-SN,0.00,WeatherDisplay:10.37,2013-01-18 22:25:00,
2013-01-18 22:29:00,30.9,30.4,29.45,WSW,248,0.7,3.1,98,0.00,CLR,,0.00,WeatherDisplay:10.37,2013-01-18 22:29:00,
2013-01-18 22:30:00,32.2,32.2,29.40,WSW,247,0.0,4.0,100,0.00,-SN,-SN,0.00,WeatherDisplay:10.37,2013-01-18 22:30:00,
2013-01-18 22:34:00,30.9,30.4,29.45,North,0,0.0,4.6,98,0.00,CLR,,0.00,WeatherDisplay:10.37,2013-01-18 22:34:00,
2013-01-18 22:35:00,32.2,32.2,29.41,SW,216,0.0,2.0,100,0.00,-SN,-SN,0.00,WeatherDisplay:10.37,2013-01-18 22:35:00,
2013-01-18 22:39:00,31.1,30.6,29.45,West,270,0.0,3.5,98,0.00,CLR,,0.00,WeatherDisplay:10.37,2013-01-18 22:39:00,
2013-01-18 22:40:00,32.2,32.2,29.41,SSE,152,0.0,2.0,100,0.00,-SN,-SN,0.00,WeatherDisplay:10.37,2013-01-18 22:40:00,
2013-01-18 22:44:00,31.1,30.6,29.46,NW,315,2.2,4.5,98,0.00,CLR,,0.00,WeatherDisplay:10.37,2013-01-18 22:44:00,
2013-01-18 22:45:00,32.2,32.2,29.41,NE,51,0.0,2.0,100,0.00,-SN,-SN,0.00,WeatherDisplay:10.37,2013-01-18 22:45:00,
2013-01-18 22:49:00,31.1,30.3,29.45,East,90,1.6,4.6,97,0.00,CLR,,0.00,WeatherDisplay:10.37,2013-01-18 22:49:00,
2013-01-18 22:50:00,32.2,32.2,29.41,NNE,23,0.0,2.0,100,0.00,-SN,-SN,0.00,WeatherDisplay:10.37,2013-01-18 22:50:00,
2013-01-18 22:54:00,31.1,30.3,29.46,North,0,0.7,2.3,97,0.00,CLR,,0.00,WeatherDisplay:10.37,2013-01-18 22:54:00,
2013-01-18 22:55:00,32.4,32.4,29.41,NNE,21,1.0,3.0,100,0.00,-SN,-SN,0.00,WeatherDisplay:10.37,2013-01-18 22:55:00,
2013-01-18 22:59:00,31.3,30.5,29.45,WSW,248,0.0,1.1,97,0.00,CLR,,0.00,WeatherDisplay:10.37,2013-01-18 22:59:00,
2013-01-18 23:00:00,32.4,32.4,29.41,NNE,14,1.0,3.0,100,0.00,-SN,-SN,0.00,WeatherDisplay:10.37,2013-01-18 23:00:00,
2013-01-18 23:04:00,31.3,30.5,29.45,SSW,202,0.7,5.8,97,0.00,CLR,,0.00,WeatherDisplay:10.37,2013-01-18 23:04:00,
2013-01-18 23:05:00,32.4,32.4,29.41,North,4,0.0,2.0,100,0.00,-SN,-SN,0.00,WeatherDisplay:10.37,2013-01-18 23:05:00,
2013-01-18 23:09:00,31.3,30.5,29.45,West,270,0.7,3.5,97,0.00,CLR,,0.00,WeatherDisplay:10.37,2013-01-18 23:09:00,
2013-01-18 23:10:00,32.4,32.4,29.41,NNE,29,0.0,2.0,100,0.00,-SN,-SN,0.00,WeatherDisplay:10.37,2013-01-18 23:10:00,
2013-01-18 23:14:00,31.3,30.5,29.44,NNW,338,1.6,3.8,97,0.00,CLR,,0.00,WeatherDisplay:10.37,2013-01-18 23:14:00,
2013-01-18 23:15:00,32.4,32.4,29.41,ENE,68,0.0,2.0,100,0.00,-SN,-SN,0.00,WeatherDisplay:10.37,2013-01-18 23:15:00,
2013-01-18 23:19:00,31.3,30.5,29.45,South,180,0.7,3.5,97,0.00,CLR,,0.00,WeatherDisplay:10.37,2013-01-18 23:19:00,
2013-01-18 23:20:00,32.4,32.4,29.41,ENE,65,0.0,2.0,100,0.00,-SN,-SN,0.00,WeatherDisplay:10.37,2013-01-18 23:20:00,
2013-01-18 23:24:00,31.3,30.5,29.45,WSW,248,0.0,2.3,97,0.00,CLR,,0.00,WeatherDisplay:10.37,2013-01-18 23:24:00,
2013-01-18 23:25:00,32.5,32.5,29.41,NE,53,0.0,2.0,100,0.00,-SN,-SN,0.00,WeatherDisplay:10.37,2013-01-18 23:25:00,
2013-01-18 23:29:00,31.3,30.5,29.45,NE,45,0.0,2.3,97,0.00,CLR,,0.00,WeatherDisplay:10.37,2013-01-18 23:29:00,
2013-01-18 23:30:00,32.5,32.5,29.41,NNE,32,0.0,2.0,100,0.00,-SN,-SN,0.00,WeatherDisplay:10.37,2013-01-18 23:30:00,
2013-01-18 23:34:00,31.3,30.5,29.44,NE,45,0.0,2.3,97,0.00,CLR,,0.00,WeatherDisplay:10.37,2013-01-18 23:34:00,
2013-01-18 23:35:00,32.5,32.5,29.41,NNE,19,0.0,2.0,100,0.00,-SN,-SN,0.00,WeatherDisplay:10.37,2013-01-18 23:35:00,
2013-01-18 23:39:00,31.3,30.8,29.44,South,180,0.0,2.3,98,0.00,CLR,,0.00,WeatherDisplay:10.37,2013-01-18 23:39:00,
2013-01-18 23:40:00,32.5,32.5,29.41,North,360,0.0,2.0,100,0.00,-SN,-SN,0.00,WeatherDisplay:10.37,2013-01-18 23:40:00,
2013-01-18 23:44:00,31.3,30.8,29.44,SE,135,0.0,4.6,98,0.00,CLR,,0.00,WeatherDisplay:10.37,2013-01-18 23:44:00,
2013-01-18 23:45:00,32.5,32.5,29.41,NNE,15,0.0,2.0,100,0.00,-SN,-SN,0.00,WeatherDisplay:10.37,2013-01-18 23:45:00,
2013-01-18 23:49:00,31.3,30.8,29.44,West,270,1.6,4.5,98,0.00,CLR,,0.00,WeatherDisplay:10.37,2013-01-18 23:49:00,
2013-01-18 23:50:00,32.5,32.5,29.41,ENE,64,0.0,2.0,100,0.00,-SN,-SN,0.00,WeatherDisplay:10.37,2013-01-18 23:50:00,
2013-01-18 23:54:00,31.3,30.8,29.44,East,90,0.0,3.5,98,0.00,CLR,,0.00,WeatherDisplay:10.37,2013-01-18 23:54:00,
2013-01-18 23:55:00,32.5,32.5,29.42,NNE,30,0.0,2.0,100,0.00,-SN,-SN,0.00,WeatherDisplay:10.37,2013-01-18 23:55:00,
2013-01-18 23:59:00,31.3,30.8,29.44,North,0,0.0,1.1,98,0.00,CLR,,0.00,WeatherDisplay:10.37,2013-01-18 23:59:00,